     2              OBSERVATION DATA    GPS                 RINEX VERSION / TYPE
teqc 2000Feb29 20021016 17:29:23UTC                         PGM / RUN BY / DATE
                                                            COMMENT
L2: 1 -> 1; 5 -> 5; 60 -> 9                                 COMMENT
L2: 1 -> 1; 5 -> 5; 60 -> 9                                 COMMENT
L2: 1 -> 1; 5 -> 5; 60 -> 9                                 COMMENT
L2: 1 -> 1; 5 -> 5; 60 -> 9                                 COMMENT
L2: 1 -> 1; 5 -> 5; 60 -> 9                                 COMMENT
Original Marker Name: COTT                                  COMMENT
Campaign Name: Yolo County Subsidence 2002                  COMMENT
4-Character Station Name: COTT                              COMMENT
6-Character Antenna Code: TRMCMP                            COMMENT
Vertical Measurement Point: BPA                             COMMENT
Vertical Offset to Rinex Ref. Point: 0.0000                 COMMENT
Radial Measurement Point: RRP                               COMMENT
Radial Offset to Rinex Ref. Point: 0.0000                   COMMENT
Antenna Height from Field Measurement: 2.0000 m             COMMENT
Additional Antenna Identification Info.:                    COMMENT
Model 22020.00+GP                                           COMMENT
Original XYZ: -2646129.3665 -4228841.7627 3961129.8342      COMMENT
New XYZ position is based on association with SCEC monument COMMENT
E1F8X5M0+0011. Position of that monument is believed to be  COMMENT
valid to within 1 m horizontally; vertical accuracy         COMMENT
should be no worse than 3-times this value.                 COMMENT
                                                            COMMENT
Revised Rinex header created by UCSD GPS archive for        COMMENT
GSAC on 27-Jun-2003 (2003:178) 16:10:12 GMT                 COMMENT
For assistance contact dagnew@ucsd.edu                      COMMENT
or anderson@python.ucsd.edu                                 COMMENT
                                                            COMMENT
COTTON 1999                                                 MARKER NAME
COTT                                                        MARKER NUMBER
-Unknown- YOLO_COUNTY                                       OBSERVER / AGENCY
3912 TRIMBLE 4000 SSI NP 7.29; SP 3.07                      REC # / TYPE / VERS
0220059298 TR GEOD L1/L2 GP                                 ANT # / TYPE
 -2646129.9474 -4228843.5509  3961127.5156                  APPROX POSITION XYZ
        2.0000        0.0000        0.0000                  ANTENNA: DELTA H/E/N
     1     1     0                                          WAVELENGTH FACT L1/2
     7    C1    L1    L2    P1    P2    S1    S2            # / TYPES OF OBSERV
     0                                                      INTERVAL
  2002     7    11    16    47   30.000000                  TIME OF FIRST OBS
  2002     7    11    17    32   30.000000                  TIME OF LAST OBS
                                                            END OF HEADER
 02  7 11 16 47 30.0000000  0  4G15G17G18G23
  20494240.6334       -461.20258
        29.2504
  20636522.9534       3825.28057
        26.2504
  20541720.0234      -2718.55557
        24.7504
  22763413.9534      26217.47557
        20.2504
 02  7 11 16 47 45.0000000  0  9G26G29G 6G15G17G18G21G22G23
  22390115.8204       3121.67856
        19.2504
  23321042.4064      26679.12546
        15.5004
  22039553.6024      44494.67347
        21.5004
  20494111.1334      -1141.79448
        29.2504
  20637894.2734      11030.39247
        26.0004
  20540309.6804     -10129.68147
        23.7504
  22495606.1724     -25832.58247
        22.2504
  23524468.4144      25760.42246
        12.0004
  22771877.7424      70694.15447
        21.0004
 02  7 11 16 48  0.0000000  0  9G26G29G 6G15G17G18G21G22G23
  22394686.2814      27141.14747
        20.0004
  23326672.1484      56264.71346
        14.2504
  22048809.8054      93134.16247
        21.2504
  20494167.7504       -844.37048
        29.0004
  20639450.1174      19205.91247      2633.47257                  20639456.6094
        25.7504         26.0004
  20539094.6094     -16515.09547
        24.2504
  22490518.9844     -52564.22647
        22.0004
  23529906.6884      54343.93545
        11.0004
  22780522.2274     116120.47947     11874.44656                  22780529.8134
        20.5004         19.2504
 02  7 11 16 48 15.0000000  0  9G26G29G 6G15G17G18G21G22G23
  22399446.5634      52155.40247
        20.0004
  23332485.6484      86812.48746      8011.99956                  23332494.0314
        15.2504         14.7504
  22058241.7664     142699.20947     18107.04956                  22058249.0594
        21.7504         20.2504
  20494396.5864        358.62748       852.06357                  20494403.3364
        29.0004         27.5004
  20641176.6724      28279.22347      9703.57447                  20641183.2934
        26.0004         26.0004
  20538060.9924     -21947.32447     -3928.05757                  20538066.3364
        23.7504         26.7504
  22485605.2814     -78386.05447     -5299.23056                  22485613.1484
        21.7504         20.7504
  23535526.3204      83871.10045      7745.76755                  23535535.5594
        10.7504         11.2504
  22789333.5164     162423.62447     47954.79646                  22789341.1254
        20.7504         19.2504
 02  7 11 16 48 30.0000000  0  9G26G29G 6G15G17G18G21G22G23
  22404378.5234      78072.16747      8157.18156                  22404385.5704
        20.0004         18.2504
  23338464.3054     118230.04346     32493.19446                  23338472.5944
        14.5004         14.5004
  22067831.9694     193097.35747     57378.30046                  22067839.2384
        21.5004         20.5004
  20494780.3674       2374.99548      2423.25747                  20494787.1524
        29.0004         27.5004
  20643056.9144      38158.32947     17401.57047                  20643063.4304
        26.0004         26.2504
  20537191.1334     -26518.52447     -7490.02547                  20537196.4064
        25.0004         27.0004
  22480846.9144    -103390.23047    -24782.97946                  22480855.3204
        20.5004         20.7504
  23541307.2734     114249.48446     31417.18446                  23541315.9964
        12.5004         12.5004
  22798294.0394     209511.14547     84646.32946                  22798301.8714
        21.5004         19.2504
 02  7 11 16 48 45.0000000  0  9G26G29G 6G15G17G18G21G22G23
  22409469.2734     104823.93747     29002.66346                  22409476.7544
        20.5004         18.0004
  23344595.4304     150449.93746     57599.56846                  23344602.9104
        14.7504         15.0004
  22077567.9304     244261.15847     97246.13846                  22077576.3134
        20.7504         21.5004
  20495306.0314       5137.53948      4575.87447                  20495312.9734
        28.2504         27.5004
  20645076.8594      48775.86747     25674.96947                  20645083.3754
        26.0004         26.2504
  20536472.2504     -30296.12347    -10433.62847                  20536477.2894
        24.5004         27.2504
  22476231.3054    -127644.00447    -43681.99346                  22476239.6884
        20.7504         20.0004
  23547236.7114     145411.49345     55699.24445                  23547246.2894
        11.2504         11.7504
  22807390.6174     257315.49647    121896.43746                  22807398.2154
        20.5004         19.0004
 02  7 11 16 49  0.0000000  0  9G26G29G 6G15G17G18G21G22G23
  22414706.6954     132348.77147     50450.56746                  22414714.0704
        20.2504         18.0004
  23350867.9694     183410.01046     83282.70846                  23350875.6024
        15.0004         14.2504
  22087438.2424     296128.36147    137662.05446                  22087447.0944
        21.0004         22.0004
  20495961.9774       8584.41648      7261.74047                  20495968.8484
        28.5004         27.5004
  20647226.4534      60070.04047     34475.61347                  20647233.0514
        26.2504         26.2504
  20535892.6254     -33342.09747    -12807.11747                  20535897.7814
        24.5004         27.0004
  22471747.2034    -151209.32147    -62044.56146                  22471755.3874
        21.7504         19.7504
  23553304.6024     177295.04245     80543.49745                  23553314.9884
        10.0004         11.0004
  22816612.4454     305774.46347    159656.64046                  22816619.9844
        20.2504         19.0004
 02  7 11 16 49 15.0000000  0  9G26G29G 6G15G17G18G21G22G23
  22420082.8054     160600.42946     72464.82646                  22420090.4264
        19.2504         18.0004
  23357271.6564     217064.09746    109506.63746                  23357279.1254
        15.2504         14.5004
  22097433.7424     348652.87047    178590.16746                  22097442.3244
        22.7504         22.0004
  20496739.3204      12669.72648     10445.09047                  20496746.1804
        28.7504         27.2504
  20649495.5474      71995.03247     43767.79547                  20649502.1334
        26.5004         26.2504
  20535443.5784     -35702.40447    -14646.32447                  20535448.5704
        24.7504         27.2504
  22467385.2814    -174131.84947    -79906.24446                  22467393.0204
        22.0004         20.0004
  23559500.2274     209853.77146    105913.85645                  23559509.5004
        12.5004         11.5004
  22825949.4224     354841.92847    197890.99946                  22825957.1024
        20.2504         19.0004
 02  7 11 16 49 30.0000000  0  9G26G29G 6G15G17G18G21G22G23
  22425589.8284     189539.09546     95014.40546                  22425597.8594
        19.2504         17.7504
  23363800.6484     251372.35746    136240.30546                  23363808.6094
        15.0004         14.5004
  22107546.3204     401794.70047    219999.34146                  22107553.8714
        22.7504         21.5004
  20497630.7274      17353.76248     14094.98347                  20497637.5594
        28.7504         27.7504
  20651877.3364      84511.09047     53520.55747                  20651884.0164
        25.2504         26.0004
  20535117.6484     -37416.76947    -15982.20947                  20535122.7344
        24.2504         27.0004
  22463138.2114    -196451.47647    -97298.14946                  22463146.0904
        22.5004         21.2504
  23565816.6954     243047.56646    131779.13245                  23565825.4534
        12.0004         11.7504
  22835394.9064     404477.91246    236568.35846                  22835402.4804
        19.7504         18.7504
 02  7 11 16 49 45.0000000  0  9G26G29G 6G15G17G18G21G22G23
  22431221.8054     219133.95046    118075.31046                  22431229.4264
        19.5004         17.7504
  23370448.0084     286303.87946    163459.62746                  23370455.8164
        14.7504         14.2504
  22117770.3914     455523.07447    261865.56446                  22117777.9884
        21.5004         20.7504
  20498630.3204      22606.02748     18187.64247                  20498636.9884
        28.5004         27.2504
  20654365.8134      97587.60247     63710.03147                  20654372.7424
        26.0004         26.2504
  20534908.2584     -38515.82147    -16838.61847                  20534913.2854
        25.0004         27.0004
  22458999.7734    -218198.73747   -114244.03546                  22459007.8164
        21.7504         21.2504
  23572248.4844     276845.70445    158115.25646                  23572258.5664
        10.7504         12.2504
  22844942.4844     454651.58246    275664.69446                  22844950.1884
        19.5004         19.0004
 02  7 11 16 50  0.0000000  0  9G26G29G 6G15G17G18G21G22G23
  22436968.3834     249333.41846    141607.31746                  22436975.6764
        19.5004         17.7504
  23377203.9534     321807.07046    191124.43446                  23377211.6684
        15.2504         14.0004
  22128096.2424     509786.35547    304148.57446                  22128104.2624
        21.7504         21.0004
  20499727.7504      28375.06248     22682.98747                  20499734.5004
        28.7504         27.5004
  20656951.1884     111173.25247     74296.24247                  20656957.9494
        26.7504         26.5004
  20534806.5634     -39051.11447    -17255.73447                  20534811.6134
        24.5004         27.2504
  22454960.1954    -239425.02247   -130783.97346                  22454968.5664
        21.0004         20.7504
  23578784.9144     311196.39745    184881.98345                  23578793.6024
        11.2504         11.5004
  22854583.0474     505311.25646    315139.73046                  22854590.5984
        19.7504         19.2504
 02  7 11 16 50 15.0000000  0  9G26G29G 6G15G17G18G21G22G23
  22442827.3834     280121.43447    165597.95246                  22442834.6414
        20.0004         17.5004
  23384065.8284     357865.94846    219222.21246                  23384073.9064
        14.5004         14.0004
  22138521.0784     564568.39447    346835.82446                  22138529.1214
        21.5004         21.0004
  20500921.0554      34645.04248     27568.67447                  20500927.8984
        28.5004         27.2504
  20659630.0704     125252.09447     85266.76547                  20659636.8674
        26.2504         26.5004
  20534809.1724     -39038.66847    -17246.03447                  20534814.2234
        24.7504         27.5004
  22451017.1954    -260146.14047   -146930.26646                  22451025.5664
        21.5004         20.7504
  23585424.1484     346083.36345    212066.57846                  23585433.2114
        11.5004         12.0004
  22864312.6954     556440.78746    354980.88246                  22864319.8954
        19.7504         18.7504
 02  7 11 16 50 30.0000000  0  9G26G29G 6G15G17G18G21G22G23
  22448795.1644     311482.27947    190034.95346                  22448802.8554
        20.0004         18.0004
  23391030.1954     394464.65446    247740.64946                  23391038.0044
        14.5004         14.0004
  22149041.5704     619853.38547    389914.97446                  22149049.8014
        22.0004         21.0004
  20502206.5474      41400.40548     32832.58447                  20502213.0514
        28.5004         27.2504
  20662400.3284     139808.76047     96609.61347                  20662407.2114
        26.2504         26.5004
  20534912.3984     -38493.92547    -16821.55047                  20534917.4024
        24.7504         27.2504
  22447167.7894    -280377.39447   -162694.85746                  22447175.8324
        23.0004         21.0004
  23592161.5864     381490.69945    239656.63345                  23592171.6564
        11.7504         11.7504
  22874128.5394     608024.35346    395175.84646                  22874135.6684
        18.7504         18.5004
 02  7 11 16 50 45.0000000  0  9G26G29G 6G15G17G18G21G22G23
  22454866.6954     343389.38047    214897.59446                  22454873.9064
        20.2504         17.5004
  23398092.3444     431576.73946    276659.11746                  23398100.1174
        14.2504         13.5004
  22159652.7194     675614.73447    433365.32346                  22159660.1994
        23.2504         21.5004
  20503579.3914      48614.82148     38454.19147                  20503585.9884
        28.2504         27.2504
  20665256.3204     154816.85647    108304.22247                  20665263.0004
        27.0004         26.2504
  20535112.4534     -37443.28847    -16002.87047                  20535117.4104
        25.2504         27.5004
  22443405.5864    -300145.16347   -178098.30546                  22443413.7464
        22.5004         21.0004
  23598993.6724     417391.89845    267631.53545                  23599003.3094
        11.7504         11.7504
  22884025.8134     660035.33146    435703.86246                  22884033.1764
        19.7504         18.5004
 02  7 11 16 51  0.0000000  0  9G26G29G 6G15G17G18G21G22G23
  22461043.4924     375848.97746    240190.74346                  22461051.1484
        19.2504         17.5004
  23405252.8444     469208.34346    305982.41146                  23405260.4774
        13.7504         13.5004
  22170355.6174     731858.60347    477191.66146                  22170363.0164
        22.5004         21.0004
  20505040.7974      56294.74548     44438.54647                  20505047.4064
        28.5004         27.0004
  20668199.4064     170282.76547    120355.57747                  20668206.0514
        27.5004         26.5004
  20535409.7504     -35880.56047    -14785.15047                  20535414.8134
        25.2504         27.5004
  22439733.3054    -319443.27947   -193135.76246                  22439741.9224
        21.5004         21.0004
  23605920.6094     453792.92946    295995.94846                  23605929.7074
        12.2504         12.2504
  22894005.8204     712479.87946    476569.70046                  22894013.4534
        19.5004         18.7504
 02  7 11 16 51 15.0000000  0  9G26G29G 6G15G17G18G21G22G23
  22467322.3364     408844.42046    265901.46246                  22467330.5554
        18.5004         17.7504
  23412510.2114     507342.60046    335697.39546                  23412517.9144
        13.0004         13.5004
  22181146.9534     788568.11947    521380.83346                  22181154.4224
        22.0004         20.2504
  20506587.7974      64423.63448     50772.73347                  20506594.4184
        28.2504         27.5004
  20671226.2504     186189.94147    132750.76647                  20671232.7304
        26.7504         26.5004
  20535801.3134     -33822.30547    -13181.31347                  20535806.2934
        25.0004         27.5004
  22436147.4694    -338288.00547   -207819.93146                  22436155.7114
        23.0004         21.2504
  23612939.3204     490676.96645    324736.68546                  23612948.8754
        11.7504         12.0004
  22904065.0634     765341.16946    517760.28546                  22904072.4844
        19.5004         18.5004
 02  7 11 16 51 30.0000000  0  9G26G29G 6G15G17G18G21G22G23
  22473697.2504     442343.76646    292004.82846                  22473705.1884
        19.7504         18.0004
  23419856.5394     545947.75546    365779.27246                  23419863.9024
        14.0004         13.2504
  22192020.7274     845711.55247    565908.13446                  22192028.6294
        21.0004         19.5004
  20508214.1884      72969.99448     57432.23047                  20508220.7274
        28.7504         27.2504
  20674331.3444     202506.91647    145465.28647                  20674337.8834
        27.0004         26.2504
  20536281.4774     -31300.14247    -11215.98547                  20536286.4574
        25.0004         27.2504
  22432641.8594    -356711.12847   -222175.60946                  22432649.7034
        23.7504         21.7504
  23620044.2344     528012.11845    353828.95146                  23620053.9654
        11.2504         12.0004
  22914197.6804     818587.32946    559250.75646                  22914205.0084
        19.2504         19.0004
 02  7 11 16 51 45.0000000  0  9G26G29G 6G15G17G18G21G22G23
  22480163.8524     476325.83146    318484.32946                  22480171.2154
        19.2504         17.7504
  23427288.8204     585002.52046    396211.51646                  23427296.5944
        13.7504         13.2504
  22202973.3444     903267.65347    610757.00046                  22202981.1524
        20.2504         19.5004
  20509915.8984      81912.86348     64400.69247                  20509922.4264
        28.5004         27.2504
  20677510.1644     219212.81247    158482.85947                  20677516.6094
        26.0004         26.2504
  20536845.4924     -28335.06447     -8905.53147                  20536850.6254
        24.7504         27.5004
  22429211.7504    -374733.50547   -236218.99246                  22429219.5474
        22.0004         21.2504
  23627230.8054     565777.07046    383256.10846                  23627240.7114
        12.2504         12.5004
  22924399.1644     872197.19846    601024.64846                  22924406.4104
        19.7504         18.5004
 02  7 11 16 52  0.0000000  0  9G26G29G 6G15G17G18G21G22G23
  22486720.6024     510781.50646    345332.87446                  22486728.1524
        19.7504         17.7504
  23434803.8524     624497.76946    426987.00246                  23434811.8484
        14.0004         13.2504
  22214002.8204     961227.03247    655920.07846                  22214010.9924
        20.2504         20.2504
  20511691.2034      91243.24548     71671.11647                  20511697.9774
        28.5004         27.2504
  20680761.5634     236298.31847    171796.22547                  20680768.1134
        25.5004         26.2504
  20537492.3754     -24936.22547     -6257.08047                  20537497.4494
        25.0004         27.5004
  22425856.8134    -392364.01347   -249957.02546                  22425865.2074
        21.2504         21.2504
  23634496.9454     603962.34745    413010.82646                  23634506.1724
        11.2504         12.0004
  22934668.2504     926161.43847    643074.67046                  22934675.3444
        20.0004         18.5004
 02  7 11 16 52 15.0000000  0  9G26G29G 6G15G17G18G21G22G23
  22493365.3984     545699.94546    372542.01446                  22493372.5514
        19.7504         17.2504
  23442401.5784     664422.68946    458097.28546                  23442409.9384
        13.5004         13.5004
  22225106.9454    1019578.97447    701389.05546                  22225114.8364
        21.0004         20.2504
  20513538.7584     100950.59348     79235.28047                  20513545.4494
        28.7504         27.2504
  20684083.0864     253753.25247    185397.46347                  20684089.6134
        25.7504         26.0004
  20538219.5314     -21114.28147     -3278.94147                  20538224.5594
        24.7504         27.5004
  22422574.4844    -409613.27847   -263397.96946                  22422583.1724
        22.7504         22.0004
  23641841.7974     642557.16845    443084.64445                  23641850.5904
        11.5004         11.5004
  22945002.5234     980469.22946    685392.40446                  22945010.1804
        19.7504         18.5004
 02  7 11 16 52 30.0000000  0  9G26G29G 6G15G17G18G21G22G23
  22500097.8134     581079.07446    400110.12846                  22500105.1994
        19.7504         17.5004
  23450080.7664     704775.00246    489540.62246                  23450088.8204
        14.0004         13.2504
  22236285.3134    1078321.25347    747162.20046                  22236293.3444
        21.2504         20.5004
  20515457.3134     111033.00148     87091.68647                  20515463.9344
        28.7504         27.5004
  20687474.5004     271575.47047    199284.89147                  20687481.2974
        25.2504         26.2504
  20539027.0234     -16871.16147        27.39547                  20539032.0864
        25.5004         27.2504
  22419364.3054    -426483.42247   -276543.52746                  22419372.6294
        21.7504         21.5004
  23649263.5084     681559.23346    473475.82146                  23649272.8054
        12.2504         12.2504
  22955402.1024    1035118.43146    727976.15546                  22955409.7584
        19.5004         18.5004
 02  7 11 16 52 45.0000000  0  9G26G29G 6G15G17G18G21G22G23
  22506916.1254     616909.64446    428030.02546                  22506923.9344
        18.7504         17.2504
  23457838.7344     745545.74046    521309.97946                  23457846.5204
        14.5004         13.5004
  22247536.2424    1137444.67747    793232.34846                  22247544.4734
        20.7504         20.0004
  20517445.8594     121481.50748     95233.36847                  20517452.3404
        29.2504         27.5004
  20690934.1884     289756.19947    213451.68047                  20690940.8204
        25.2504         26.0004
  20539913.0084     -12215.95147      3654.83447                  20539918.0234
        24.7504         27.2504
  22416223.9454    -442983.10246   -289400.39346                  22416232.6454
        19.7504         21.0004
  23656760.9304     720959.25246    504177.06846                  23656770.4734
        12.2504         12.2504
  22965864.7664    1090099.81147    770818.76146                  22965872.2814
        20.2504         18.5004
 02  7 11 16 53  0.0000000  0  9G26G29G 6G15G17G18G21G22G23
  22513817.8834     653179.82046    456292.48146                  22513825.5864
        18.7504         17.2504
  23465674.4224     786722.79446    553395.95546                  23465681.3524
        13.7504         13.5004
  22258857.2034    1196937.24247    839590.12946                  22258865.2344
        20.7504         19.5004
  20519501.5474     132284.31648    103651.12947                  20519507.8874
        29.7504         27.7504
  20694460.0314     308283.64647    227888.65247                  20694466.9144
        26.0004         26.2504
  20540874.9224      -7160.57447      7594.09947                  20540880.0784
        24.5004         27.0004
  22413152.6884    -459124.09147   -301977.73946                  22413160.8954
        21.7504         21.0004
  23664331.9224     760745.12545    535178.99846                  23664341.6644
        11.7504         12.0004
  22976388.0084    1145401.29147    813910.80246                  22976395.8524
        20.0004         18.7504
 02  7 11 16 53 15.0000000  0  9G26G29G 6G15G17G18G21G22G23
  22520803.3754     689888.21946    484896.40946                  22520811.4064
        18.7504         17.2504
  23473587.6024     828304.74046    585797.46146                  23473595.3164
        14.2504         13.5004
  22270248.1564    1256797.62447    886234.52346                  22270256.3984
        21.5004         20.2504
  20521624.3674     143440.47848    112344.23247                  20521630.8714
        29.0004         27.7504
  20698051.6644     327156.71047    242594.93647                  20698058.6174
        25.7504         26.0004
  20541912.6094      -1706.17547     11844.28447                  20541917.8364
        24.5004         27.0004
  22410149.4064    -474907.39147   -314276.41046                  22410156.9454
        23.2504         21.5004
  23671976.3364     800915.49145    566480.52645                  23671984.6844
        11.2504         11.7504
  22986972.1804    1201021.57647    857251.24046                  22986979.8714
        20.0004         18.2504
 02  7 11 16 53 30.0000000  0  9G26G29G 6G15G17G18G21G22G23
  22527870.3364     727025.98146    513834.89546                  22527877.6524
        18.5004         17.5004
  23481575.8284     870282.86446    618507.63846                  23481583.7774
        14.2504         13.5004
  22281707.7974    1317016.88447    933158.55346                  22281715.7464
        21.0004         20.0004
  20523812.6564     154941.34148    121305.92947                  20523819.1954
        29.2504         27.7504
  20701706.9614     346366.71247    257563.77247                  20701713.7814
        26.2504         26.2504
  20543024.9224       4138.58747     16398.65047                  20543029.9264
        24.7504         26.7504
  22407212.4614    -490341.64947   -326303.08546                  22407220.1884
        22.5004         21.2504
  23679691.7734     841461.35045    598074.62346                  23679702.0314
        11.5004         12.5004
  22997615.5784    1256951.72446    900833.13146                  22997623.4694
        19.7504         18.2504
 02  7 11 16 53 45.0000000  0  9G26G29G 6G15G17G18G21G22G23
  22535018.5784     764588.41146    543104.28846                  22535025.9064
        19.2504         17.5004
  23489638.3674     912652.33346    651522.78246                  23489646.8794
        14.2504         13.5004
  22293234.3984    1377590.29346    980358.54946                  22293242.3714
        19.2504         19.0004
  20526066.2114     166782.35648    130532.67747                  20526072.8094
        29.7504         27.7504
  20705425.9694     365909.41347    272791.84847                  20705432.5204
        26.7504         26.2504
  20544210.7194      10369.21147     21253.68747                  20544215.6414
        24.7504         27.0004
  22404340.7504    -505431.44447   -338061.34746                  22404348.4774
        20.7504         20.5004
  23687478.0234     882377.80645    629957.50446                  23687487.7774
        11.7504         12.5004
  23008316.9064    1313187.00847    944652.80946                  23008324.7504
        20.0004         18.2504
 02  7 11 16 54  0.0000000  0  9G26G29G 6G15G17G18G21G22G23
  22542245.7274     802567.67846    572698.49946                  22542253.0904
        19.2504         17.0004
  23497774.4224     955405.39246    684836.82746                  23497781.7154
        14.2504         13.2504
  22304827.0234    1438509.94046   1027828.34146                  22304834.7624
        18.2504         17.5004
  20528382.6094     178956.01348    140018.63447                  20528389.3484
        29.7504         28.0004
  20709206.7734     385777.09847    288273.15347                  20709213.3484
        27.0004         26.5004
  20545468.1644      16977.93747     26403.35147                  20545473.0864
        25.2504         27.0004
  22401533.2114    -520184.44747   -349557.16646                  22401541.5124
        21.0004         21.5004
  23695333.6024     923656.95346    662123.03346                  23695343.2034
        12.2504         12.0004
  23019074.6094    1369719.55746    988704.10746                  23019082.4184
        19.7504         18.2504
 02  7 11 16 54 15.0000000  0  9G26G29G 6G15G17G18G21G22G23
  22549552.8054     840965.56746    602618.89846                  22549559.9924
        18.7504         17.0004
  23505982.8364     998543.70746    718451.06246                  23505990.3754
        14.7504         13.5004
  22316485.8134    1499777.53046   1075569.26846                  22316493.7974
        17.7504         18.0004
  20530763.1724     191464.29348    149765.33647                  20530769.8754
        29.7504         27.7504
  20713049.5944     405971.67847    304009.18047                  20713056.0634
        27.5004         26.7504
  20546798.1804      23966.68647     31849.14247                  20546803.4064
        24.7504         27.2504
  22398790.4304    -534598.69547   -360789.00846                  22398798.7544
        22.0004         21.7504
  23703257.9454     965300.37446    694572.39746                  23703268.0394
        12.7504         13.0004
  23029889.5634    1426551.03446   1032988.34046                  23029897.3484
        19.2504         18.0004
 02  7 11 16 54 30.0000000  0  9G26G29G 6G15G17G18G21G22G23
  22556936.8754     879770.86046    632856.77146                  22556944.4144
        18.7504         16.7504
  23514263.7504    1042056.01946    752356.73346                  23514271.3834
        15.0004         13.7504
  22328209.0314    1561381.83146   1123572.55446                  22328217.2034
        19.2504         19.0004
  20533204.6564     204296.26748    159764.26547                  20533211.3014
        29.5004         28.0004
  20716952.7584     426482.35547    319991.51247                  20716959.3794
        27.0004         26.7504
  20548198.4454      31324.39947     37582.44147                  20548203.4964
        25.0004         27.2504
  22396109.6334    -548684.99447   -371765.32046                  22396117.3714
        20.2504         20.7504
  23711249.3364    1007296.88145    727296.89746                  23711259.5594
        10.5004         12.2504
  23040758.8674    1483670.26846   1077496.80946                  23040766.6294
        18.7504         17.7504
 02  7 11 16 54 45.0000000  0  9G26G29G 6G15G17G18G21G22G23
  22564398.9774     918983.75646    663412.25046                  22564406.5164
        18.5004         16.7504
  23522614.7274    1085942.63646    786554.05746                  23522622.0554
        15.5004         14.0004
  22339995.8594    1623322.93246   1171838.27546                  22340004.2544
        19.2504         19.5004
  20535708.3524     217452.31648    170015.72647                  20535715.2934
        29.0004         27.7504
  20720915.7974     447309.40647    336220.37247                  20720922.4064
        27.7504         26.7504
  20549668.6024      39051.32847     43603.42547                  20549673.5594
        25.0004         27.2504
  22393491.5234    -562443.14547   -382485.93546                  22393499.4614
        21.7504         20.7504
  23719308.7274    1049646.46645    760296.45746                  23719319.3014
        11.2504         12.0004
  23051683.1724    1541077.29146   1122229.51746                  23051691.2854
        19.2504         17.7504
 02  7 11 16 55  0.0000000  0  9G26G29G 6G15G17G18G21G22G23
  22571937.9694     958601.39546    694283.11246                  22571945.8714
        19.2504         17.0004
  23531036.5864    1130200.73046    821040.86146                  23531043.9614
        14.2504         13.5004
  22351846.3834    1685598.12046   1220364.31846                  22351855.5744
        18.5004         19.7504
  20538272.9384     230929.92148    180517.74347                  20538279.9024
        28.5004         28.0004
  20724938.7344     468450.37847    352693.85047                  20724945.4734
        27.0004         26.5004
  20551208.5234      47144.86747     49910.07947                  20551213.4574
        24.7504         27.0004
  22390935.6644    -575875.46147   -392952.65146                  22390943.5314
        22.7504         21.7504
  23727434.2194    1092346.14845    793568.87746                  23727442.9774
        11.7504         12.0004
  23062661.3674    1598769.39746   1167184.37546                  23062669.1644
        18.7504         17.7504
 02  7 11 16 55 15.0000000  0  9G26G29G 6G15G17G18G21G22G23
  22579552.5084     998615.36546    725462.80046                  22579559.8014
        19.5004         17.0004
  23539527.9694    1174821.66246    855810.37546                  23539536.0944
        14.5004         13.2504
  22363758.9924    1748198.82946   1269144.01146                  22363767.6684
        18.5004         19.2504
  20540897.1804     244720.79548    191263.86347                  20540904.0234
        28.7504         27.7504
  20729019.8754     489897.01547    369405.50947                  20729026.8634
        27.0004         26.5004
  20552817.0474      55596.64347     56495.87547                  20552821.9224
        24.5004         26.7504
  22388440.1884    -588990.22147   -403171.90746                  22388447.9384
        23.0004         21.5004
  23735624.3054    1135387.36946    827107.47845                  23735632.6994
        12.0004         11.5004
  23073692.6484    1656738.01346   1212354.68946                  23073700.4924
        18.7504         17.5004
 02  7 11 16 55 30.0000000  0  9G26G29G 6G15G17G18G21G22G23
  22587241.6954    1039022.30746    756948.70646                  22587248.6954
        19.2504         16.7504
  23548087.2584    1219802.20146    890860.13346                  23548095.2774
        13.2504         13.5004
  22375733.0554    1811121.68346   1318174.73446                  22375741.4144
        19.7504         18.7504
  20543580.7814     258821.93848    202251.76347                  20543587.7114
        29.2504         27.7504
  20733158.8054     511646.28247    386352.98347                  20733165.7114
        27.2504         26.7504
  20554493.0704      64403.41747     63358.29747                  20554498.0634
        24.5004         26.5004
  22386004.0864    -601790.69447   -413146.27846                  22386012.0234
        22.7504         21.5004
  23743879.7274    1178766.80945    860909.57646                  23743889.0234
        11.0004         12.0004
  23084775.5944    1714979.85346   1257737.91946                  23084783.0984
        18.2504         17.7504
 02  7 11 16 55 45.0000000  0  9G26G29G 6G15G17G18G21G 3G23
  22595005.7274    1079822.57446    788741.09546                  22595012.9264
        19.2504         17.0004
  23556714.8594    1265142.52446    926190.22246                  23556723.6054
        13.5004         13.2504
  22387768.7734    1874366.91247   1367456.69746                  22387776.9224
        20.0004         18.5004
  20546323.2034     273233.92048    213481.86947                  20546329.8954
        29.0004         27.7504
  20737354.8914     533698.65847    403536.64347                  20737361.7344
        26.2504         26.5004
  20556236.3834      73565.76247     70497.78847                  20556241.4924
        24.0004         26.5004
  22383628.0004    -614275.96647   -422875.04546                  22383636.0204
        22.0004         21.0004
  23636809.9064      -3686.81155
        11.2504
  23095910.7814    1773495.14446   1303334.21646                  23095918.2274
        19.0004         18.0004
 02  7 11 16 56  0.0000000  0  9G26G29G 6G15G17G18G21G 3G23
  22602842.5084    1121005.24446    820831.47146                  22602850.5864
        18.7504         17.0004
  23565409.8444    1310831.81446    961792.25246                  23565417.1954
        13.5004         13.0004
  22399862.7274    1937923.58746   1416981.33946                  22399871.0044
        19.0004         17.7504
  20549122.8204     287945.96048    224945.79247                  20549129.3714
        29.7504         27.7504
  20741607.3204     556043.55247    420948.23947                  20741614.4024
        26.0004         26.5004
  20558045.5394      83072.89247     77905.94147                  20558050.6844
        24.2504         26.5004
  22381310.0314    -626456.98947   -432366.72246                  22381317.8634
        20.5004         20.7504
  23631577.1334     -31186.59745
        11.0004
  23107095.9304    1832272.95746   1349135.07046                  23107103.9734
        18.5004         17.5004
 02  7 11 16 56 15.0000000  0  9G26G29G 6G15G17G18G21G 3G23
  22610751.9144    1162568.66846    853218.53746                  22610759.7934
        19.2504         16.7504
  23574170.4224    1356868.35546    997664.85346                  23574178.4654
        13.7504         12.5004
  22412016.0554    2001790.04546   1466747.34646                  22412025.0234
        17.5004         18.0004
  20551979.2974     302956.73448    236642.49447                  20551986.0474
        29.7504         27.7504
  20745914.8204     578679.57247    438586.69047                  20745921.7854
        26.7504         26.7504
  20559920.0234      92923.23747     85581.54347                  20559925.3554
        24.2504         26.5004
  22379049.7504    -638335.05347   -441622.33046                  22379057.6644
        21.5004         21.5004
  23626399.5394     -58395.98845
        11.7504
  23118330.6884    1891311.60346   1395139.19246                  23118339.0944
        18.5004         17.2504
 02  7 11 16 56 30.0000000  0  9G26G29G 6G15G17G18G21G 3G23
  22618732.8984    1204510.51246    885900.46146                  22618740.3324
        19.2504         16.5004
  23582995.7894    1403249.97646   1033806.33046                  23583003.2464
        13.5004         13.2504
  22424228.2114    2065963.98846   1516752.93046                  22424237.1094
        18.5004         19.0004
  20554892.3524     318264.31148    248570.45847                  20554899.0664
        30.0004         27.7504
  20750277.2274     601604.67847    456450.38647                  20750284.0984
        26.2504         26.5004
  20561859.4064     103114.74147     93522.96347                  20561864.6564
        24.2504         26.5004
  22376846.3674    -649912.04747   -450643.33946                  22376854.2344
        21.7504         21.2504
  23621276.6564     -85316.68245     -9760.97856                  23621284.0314
        11.7504         12.0004
  23129614.5394    1950608.78746   1441344.74446                  23129622.6644
        18.5004         17.2504
 02  7 11 16 56 45.0000000  0  9G26G29G 6G15G17G18G21G 3G23
  22626786.0554    1246828.78046    918875.71746                  22626793.3364
        19.5004         16.7504
  23591887.7504    1449974.53146   1070215.05546                  23591895.6524
        13.5004         12.5004
  22436498.0554    2130443.24346   1566996.42846                  22436506.8364
        19.5004         19.5004
  20557861.1724     333866.76648    260728.20347                  20557867.7814
        29.7504         27.7504
  20754694.6024     624817.10847    474537.97447                  20754701.3164
        26.7504         26.5004
  20563863.3444     113645.42647    101728.69647                  20563868.4774
        24.5004         26.7504
  22374700.1094    -661190.08847   -459431.38546                  22374708.6684
        21.2504         21.2504
  23616207.7664    -111950.31045    -30514.43146                  23616216.1374
        11.5004         12.2504
  23140947.1954    2010162.38346   1487750.11046                  23140955.1454
        18.2504         17.5004
 02  7 11 16 57  0.0000000  0  9G26G29G 6G15G17G18G21G 3G23
  22634908.7344    1289513.83146    952136.77346                  22634916.0634
        19.7504         16.7504
  23600842.4224    1497032.25746   1106883.38246                  23600851.0514
        13.7504         12.7504
  22448824.7194    2195218.27047   1617470.40746                  22448833.3134
        20.0004         20.0004
  20560884.7734     349754.82648    273108.50147                  20560891.2424
        29.7504         27.7504
  20759164.6174     648307.49247    492842.15447                  20759171.2504
        27.0004         26.5004
  20565930.2974     124505.85047    110191.35547                  20565935.4534
        24.5004         26.7504
  22372609.5634    -672178.30047   -467993.59346                  22372617.8404
        21.7504         21.0004
  23611193.2734    -138305.95246    -51051.26146                  23611201.9734
        12.5004         12.0004
  23152326.9304    2069962.78346   1534347.77946                  23152334.7854
        17.7504         17.0004
 02  7 11 16 57 15.0000000  0  9G26G29G 6G15G17G18G21G 3G23
  22643101.5554    1332567.50946    985685.08346                  22643109.0474
        18.7504         16.7504
  23609861.0704    1544425.14146   1143812.87046                  23609868.9384
        14.0004         12.5004
  22461207.5864    2260290.77747   1668176.19546                  22461216.2734
        20.2504         20.0004
  20563962.8364     365930.50648    285712.91647                  20563969.4224
        29.7504         27.7504
  20763687.9844     672077.89247    511364.52347                  20763694.7114
        27.0004         26.7504
  20568059.9384     135697.94847    118912.46847                  20568064.9534
        24.5004         26.7504
  22370574.1564    -682874.96347   -476328.65146                  22370582.1054
        22.5004         22.0004
  23606230.8524    -164381.27145    -71369.67745                  23606238.2034
        11.7504         11.7504
  23163754.0314    2130011.75746   1581139.15246                  23163762.2504
        18.2504         17.0004
 02  7 11 16 57 30.0000000  0  9G26G29G 6G15G17G18G21G 3G23
  22651364.5314    1375989.03046   1019520.00546                  22651372.2584
        19.5004         16.7504
  23618942.9694    1592152.35446   1181002.86746                  23618950.1334
        14.0004         12.2504
  22473646.4844    2325659.99746   1719113.19946                  22473654.9964
        18.5004         19.2504
  20567095.5864     382393.34548    298541.08247                  20567102.1374
        29.7504         27.5004
  20768264.6414     696127.83647    530104.72447                  20768271.3554
        27.0004         26.7504
  20570252.6094     147221.07947    127891.52247                  20570257.4734
        24.2504         26.5004
  22368593.6334    -693280.38947   -484436.73146                  22368602.0274
        22.0004         22.2504
  23601322.0704    -190176.51346    -91469.84246                  23601330.1604
        12.2504         12.2504
  23175227.7814    2190308.59346   1628123.68546                  23175235.9774
        17.5004         16.7504
 02  7 11 16 57 45.0000000  0  9G26G29G 6G15G17G18G21G 3G23
  22659695.7584    1419771.55146   1053636.23346                  22659703.3794
        18.5004         16.5004
  23628087.9384    1640207.04546   1218448.06546                  23628095.1724
        14.0004         12.7504
  22486140.7504    2391319.06646   1770276.03646                  22486150.0234
        15.7504         18.2504
  20570281.8284     399136.78948    311587.90847                  20570288.4734
        29.5004         27.5004
  20772893.1564     720450.71747    549057.60447                  20772899.8134
        27.7504         26.7504
  20572507.1564     159068.67647    137123.41547                  20572512.2074
        24.2504         26.7504
  22366667.6254    -703401.10347   -492322.96346                  22366675.8674
        22.0004         21.5004
  23596465.4844    -215697.94146   -111356.65045                  23596473.0234
        12.5004         11.7504
  23186748.0554    2250846.37246   1675295.92246                  23186756.6604
        17.7504         17.0004
 02  7 11 16 58  0.0000000  0  9G26G29G 6G15G17G18G21G 3G23
  22668095.2194    1463911.44446   1088030.94446                  22668102.7814
        17.7504         16.2504
  23637294.0634    1688585.56046   1256145.57446                  23637302.3984
        14.0004         12.7504
  22498690.2034    2457264.39346   1821661.90346                  22498699.8524
        15.2504         17.7504
  20573520.7734     416157.42748    324850.71947                  20573527.1254
        29.5004         27.5004
  20777572.7584     745043.28447    568220.62747                  20777579.4144
        26.7504         26.7504
  20574822.6804     171237.19347    146605.37747                  20574827.7304
        24.2504         26.5004
  22364795.5474    -713240.46947   -499989.99246                  22364803.1454
        23.5004         22.0004
  23591660.6094    -240948.70746   -131032.54546                  23591669.0744
        13.2504         12.5004
  23198312.8594    2311621.50646   1722653.13346                  23198321.1024
        17.5004         17.2504
 02  7 11 16 58 15.0000000  0  9G26G29G 6G15G17G18G21G 3G23
  22676561.7504    1508401.63046   1122698.60546                  22676569.0664
        19.0004         16.5004
  23646560.5394    1737280.84946   1294089.94346                  23646568.3594
        14.0004         13.0004
  22511292.4454    2523488.82346   1873265.26846                  22511301.7074
        17.0004         18.0004
  20576811.1884     433448.42948    338324.22547                  20576817.5164
        30.0004         27.5004
  20782302.6564     769898.59947    587588.39447                  20782309.4304
        27.0004         26.7504
  20577197.9844     183719.63547    156331.95147                  20577203.0004
        24.2504         26.5004
  22362975.4534    -722805.35747   -507443.13146                  22362983.4384
        21.2504         22.2504
  23586905.8364    -265935.35046   -150502.64546                  23586913.4804
        12.7504         12.7504
  23209921.9774    2372626.90446   1770189.77846                  23209929.7734
        17.7504         17.0004
 02  7 11 16 58 30.0000000  0  9G26G29G 6G15G17G18G21G 3G23
  22685093.6564    1553237.61746   1157635.71046                  22685101.1134
        18.7504         16.7504
  23655886.1644    1786288.22646   1332277.48146                  23655893.8914
        14.0004         12.7504
  22523946.6884    2589987.72746   1925082.53546                  22523955.8324
        17.7504         18.5004
  20580152.1024     451005.48448    352005.04147                  20580158.5474
        29.2504         27.5004
  20787081.6414     795012.42547    607157.60447                  20787088.2854
        27.2504         26.7504
  20579632.1884     196511.65647    166299.75947                  20579637.1914
        24.0004         26.2504
  22361206.2894    -732100.10747   -514685.75246                  22361215.0474
        20.5004         22.0004
  23582200.4454    -290661.86346   -169770.03846                  23582210.0354
        12.5004         12.5004
  23221574.1644    2433857.98246   1817902.25546                  23221582.0434
        17.7504         17.0004
 02  7 11 16 58 45.0000000  0  9G26G29G 6G15G17G18G21G 3G23
  22693692.1174    1598421.59646   1192843.99146                  22693699.5984
        18.7504         16.5004
  23665271.8444    1835609.93446   1370709.94046                  23665280.0514
        13.2504         12.5004
  22536653.9614    2656763.38446   1977115.44346                  22536662.7424
        18.2504         18.5004
  20583544.1954     468831.21648    365895.22047                  20583550.7464
        30.0004         27.7504
  20791910.2894     820387.28247    626930.21147                  20791917.0984
        26.7504         27.0004
  20582126.0314     209615.74947    176510.73747                  20582131.0234
        23.7504         26.2504
  22359489.9694    -741122.27947   -521715.97946                  22359498.4694
        22.2504         22.0004
  23577545.4064    -315125.40846   -188832.51646                  23577554.6804
        12.5004         12.7504
  23233269.1334    2495317.01846   1865792.38246                  23233277.2704
        17.5004         17.2504
 02  7 11 16 59  0.0000000  0  9G26G29G 6G15G17G18G21G 3G23
  22702356.4844    1643952.95946   1228322.95646                  22702363.6954
        19.5004         16.2504
  23674717.4454    1885245.51846   1409387.00646                  23674725.3714
        13.7504         12.2504
  22549413.5864    2723815.05546   2029363.42846                  22549422.3204
        19.2504         19.2504
  20586987.5944     486925.22048    379994.43547                  20586994.0744
        29.7504         27.5004
  20796788.7504     846022.79647    646905.92947                  20796795.5354
        27.0004         26.7504
  20584678.7274     223031.36147    186964.45547                  20584683.9654
        23.7504         26.5004
  22357824.5084    -749872.21347   -528534.09046                  22357832.5744
        22.7504         22.0004
  23572939.9924    -339326.12146   -207690.21046                  23572948.4574
        13.0004         12.2504
  23245007.9614    2557003.36246   1913859.62046                  23245015.5704
        18.2504         16.5004
 02  7 11 16 59 15.0000000  0  9G26G29G 6G15G17G18G21G 3G23
  22711085.4534    1689824.27446   1264066.82046                  22711092.8164
        18.5004         16.5004
  23684221.1564    1935187.51346   1448302.80646                  23684228.5204
        13.5004         12.5004
  22562224.3834    2791135.34246   2081820.72546                  22562233.3984
        19.0004         19.2504
  20590480.3524     505280.34348    394297.11847                  20590486.8674
        30.0004         27.5004
  20801715.1024     871911.81747    667079.17847                  20801721.8874
        26.5004         27.0004
  20587289.6724     236751.22047    197655.24547                  20587294.8754
        23.7504         26.2504
  22356210.1174    -758357.20747   -535145.76046                  22356217.8444
        23.0004         22.2504
  23568383.3054    -363270.97346   -226348.51346                  23568391.3484
        13.0004         12.5004
  23256788.2344    2618909.58846   1962098.19746                  23256796.1024
        18.0004         16.5004
 02  7 11 16 59 30.0000000  0  9G26G29G 6G15G17G18G21G 3G23
  22719878.8284    1736035.46046   1300075.51346                  22719886.6954
        18.0004         16.2504
  23693783.2344    1985435.77146   1487457.28146                  23693790.6094
        14.7504         12.7504
  22575086.1644    2858724.22846   2134487.32146                  22575095.3794
        18.5004         18.7504
  20594023.0394     523896.80348    408803.44047                  20594029.5204
        30.0004         27.5004
  20806689.8984     898054.63347    687450.18747                  20806696.6844
        26.5004         26.2504
  20589958.3134     250775.42247    208583.20047                  20589963.6684
        23.7504         26.2504
  22354645.7194    -766576.76047   -541550.57146                  22354654.1254
        21.2504         22.0004
  23563875.1884    -386959.55146   -244807.11446                  23563882.9844
        12.7504         12.5004
  23268610.3134    2681035.62846   2010508.06646                  23268618.0634
        17.5004         17.0004
 02  7 11 16 59 45.0000000  0  9G26G29G 6G15G17G18G21G 3G23
  22728735.9534    1782579.14546   1336343.31446                  22728743.3984
        18.0004         16.0004
  23703401.8284    2035982.90646   1526844.62146                  23703408.5784
        14.7504         12.5004
  22587997.3594    2926574.19446   2187357.36546                  22588006.0824
        17.7504         18.5004
  20597614.1954     542767.43448    423507.82247                  20597620.5234
        30.7504         27.7504
  20811711.7194     924444.15847    708013.45547                  20811718.5274
        27.0004         26.5004
  20592683.4304     265096.66247    219742.59747                  20592688.7734
        23.0004         26.2504
  22353130.6644    -774538.08747   -547754.16846                  22353139.4804
        21.5004         22.2504
  23559415.2504    -410398.61346   -263071.30046                  23559422.6024
        12.7504         12.0004
  23280473.0004    2743374.04446   2059083.40846                  23280480.7734
        17.5004         16.7504
 02  7 11 17  0  0.0000000  0  9G26G29G 6G15G17G18G21G 3G23
  22737655.9774    1829454.36746   1372869.44446                  22737663.2114
        18.5004         16.2504
  23713077.2274    2086827.94446   1566464.12346                  23713084.1334
        14.5004         13.0004
  22600957.9694    2994684.26946   2240430.08246                  22600966.4804
        17.0004         18.2504
  20601253.1094     561891.64848    438409.80047                  20601259.5664
        30.0004         27.7504
  20816780.1804     951079.52747    728768.28547                  20816786.8954
        26.2504         26.7504
  20595465.2664     279714.13447    231132.84147                  20595470.6804
        23.7504         26.2504
  22351664.8984    -782241.93647   -553757.13446                  22351673.5164
        23.7504         23.0004
  23555002.7814    -433588.64746   -281141.41346                  23555010.5554
        13.2504         13.2504
  23292375.9694    2805923.90046   2107823.52846                  23292383.9654
        18.5004         16.7504
 02  7 11 17  0 15.0000000  0  9G26G29G 6G15G17G18G21G 3G23
  22746638.0704    1876655.50646   1409649.53446                  22746645.4574
        18.7504         16.2504
  23722808.5634    2137965.24046   1606311.33746                  23722816.1954
        14.2504         12.5004
  22613967.6954    3063048.78146   2293701.04246                  22613977.1094
        16.2504         18.5004
  20604939.7504     581264.02048    453505.15447                  20604946.1374
        30.5004         27.7504
  20821894.5164     977955.47347    749710.56047                  20821901.3014
        27.0004         26.7504
  20598302.2504     294622.43447    242749.69847                  20598307.5234
        23.2504         26.2504
  22350247.1564    -789693.81547   -559563.77046                  22350255.4454
        24.7504         23.2504
  23550635.7424    -456534.77446   -299021.50046                  23550642.8714
        13.0004         12.5004
  23304317.9144    2868679.51946   2156723.96246                  23304325.5004
        17.7504         17.0004
 02  7 11 17  0 30.0000000  0  9G26G29G 6G15G17G18G21G 3G23
  22755681.3754    1924179.01446   1446680.80946                  22755688.9614
        18.2504         16.0004
  23732594.3834    2189391.24146   1646383.52646                  23732602.5784
        14.2504         12.7504
  22627024.7194    3131664.27746   2347167.56046                  22627034.8594
        15.7504         18.7504
  20608672.9144     600881.43248    468791.43647                  20608679.3954
        30.5004         27.7504
  20827054.2344    1005068.73147    770837.76547                  20827060.8914
        27.2504         26.7504
  20601193.8364     309818.28447    254590.62047                  20601198.8524
        23.5004         26.0004
  22348876.2114    -796896.96747   -565176.60946                  22348884.0784
        22.0004         22.5004
  23546315.7194    -479239.89746   -316713.77546                  23546323.1644
        13.7504         12.7504
  23316298.3914    2931637.51046   2205782.09846                  23316305.8714
        18.0004         17.0004
 02  7 11 17  0 45.0000000  0  9G26G29G 6G15G17G18G21G 3G23
  22764786.5784    1972027.12946   1483965.05046                  22764794.0824
        17.7504         15.7504
  23742436.0554    2241108.21046   1686682.43146                  23742444.5314
        14.2504         13.0004
  22640129.9614    3200532.88346   2400831.30846                  22640139.9144
        16.0004         18.5004
  20612452.9924     620746.23148    484270.49347                  20612459.3914
        30.2504         27.7504
  20832259.3754    1032421.94547    792151.94247                  20832266.1374
        26.7504         26.7504
  20604140.5944     325303.80747    266657.25647                  20604145.9264
        22.7504         25.7504
  22347553.2814    -803848.89247   -570593.65246                  22347561.4064
        22.7504         22.2504
  23542041.0784    -501701.33246   -334216.16246                  23542049.4734
        14.2504         12.5004
  23328318.1414    2994800.02346   2254999.59546                  23328325.9144
        18.2504         17.2504
 02  7 11 17  1  0.0000000  0  9G26G29G 6G15G17G18G21G 3G23
  22773952.4144    2020194.29946   1521497.91146                  22773960.6094
        17.7504         16.0004
  23752331.4454    2293110.63046   1727203.78946                  23752339.2424
        14.2504         12.7504
  22653283.1174    3269649.08446   2454687.98546                  22653292.4964
        18.5004         19.2504
  20616279.0944     640853.29648    499938.33447                  20616285.4694
        30.0004         27.2504
  20837509.0634    1060009.73647    813648.90447                  20837515.6844
        26.7504         26.7504
  20607141.4534     341073.66947    278945.45647                  20607146.8204
        23.2504         26.0004
  22346277.1094    -810554.64947   -575818.88446                  22346285.3754
        23.2504         22.7504
  23537812.0004    -523924.02746   -351532.50846                  23537820.1024
        13.2504         12.7504
  23340375.3914    3058161.55346   2304372.17946                  23340383.3284
        18.2504         17.0004
 02  7 11 17  1 15.0000000  0  9G26G29G 6G15G17G18G21G 3G23
  22783179.5004    2068680.50846   1559279.34246                  22783187.6604
        18.7504         16.0004
  23762281.5634    2345398.36846   1767947.45746                  23762290.6024
        14.2504         13.0004
  22666482.7194    3339012.74047   2508737.51946                  22666491.2074
        21.0004         19.2504
  20620151.5864     661202.82148    515795.09947                  20620158.0554
        29.5004         27.5004
  20842803.4384    1087832.35347    835328.83947                  20842810.1764
        26.7504         26.5004
  20610196.4774     357127.97447    291455.30247                  20610201.7504
        23.0004         25.7504
  22345047.9454    -817014.18047   -580852.25946                  22345056.1994
        23.7504         22.7504
  23533628.9064    -545907.52346   -368662.49646                  23533636.5274
        13.0004         12.7504
  23352470.6564    3121721.97046   2353899.74846                  23352478.6884
        17.7504         17.0004
 02  7 11 17  1 30.0000000  0  9G26G29G 6G15G17G18G21G 3G23
  22792465.9924    2117482.19546   1597306.61346                  22792473.8134
        18.5004         16.2504
  23772285.2584    2397967.92846   1808910.73746                  23772293.1254
        13.5004         12.7504
  22679728.5704    3408620.36447   2562977.18346                  22679736.4614
        20.5004         18.5004
  20624069.4384     681791.55048    531838.25847                  20624076.1524
        29.0004         27.5004
  20848142.1174    1115886.61247    857189.27747                  20848148.6914
        26.7504         26.2504
  20613305.1804     373463.50847    304184.27947                  20613310.5004
        23.2504         26.2504
  22343864.5784    -823230.76647   -585696.33246                  22343872.7974
        22.7504         22.5004
  23529490.0944    -567654.83546   -385608.43246                  23529498.8524
        12.7504         13.0004
  23364602.7734    3185477.82746   2403579.57946                  23364610.4654
        18.5004         17.0004
 02  7 11 17  1 45.0010000  0  9G26G29G 6G15G17G18G21G 3G23
  22801811.9034    2166596.05446   1635577.15446                  22801819.2204
        18.0004         15.7504
  23782341.6534    2450816.30946   1850091.27246                  23782349.3804
        13.5004         12.5004
  22693020.4114    3478470.05946   2617405.46746                  22693028.2204
        18.5004         16.7504
  20628031.7244     702614.61548    548064.02347                  20628038.4624
        29.7504         27.5004
  20853523.7004    1144168.05947    879226.75747                  20853530.4624
        25.5004         26.0004
  20616466.2164     390074.91747    317128.23347                  20616471.4074
        23.5004         26.2504
  22342726.9034    -829211.07947   -590356.27446                  22342735.1104
        24.2504         22.7504
  23525395.7164    -589173.38646   -402376.09746                  23525404.0284
        13.0004         12.5004
  23376772.3644    3249426.88446   2453409.97646                  23376779.9504
        18.7504         16.7504
 02  7 11 17  2  0.0010000  0  9G26G29G 6G15G17G18G21G 3G23
  22811215.9744    2216013.29646   1674084.06246                  22811223.2084
        18.5004         15.7504
  23792449.6854    2503934.07046   1891481.71946                  23792457.0714
        14.2504         12.5004
  22706355.7714    3548550.15446   2672013.26646                  22706364.4114
        16.7504         16.2504
  20632037.9504     723667.13748    564468.57747                  20632044.6774
        29.2504         27.2504
  20858947.7244    1172670.97547    901436.81447                  20858954.4154
        26.0004         26.0004
  20619678.8804     406957.67847    330283.63047                  20619684.1884
        23.2504         26.2504
  22341633.5054    -834956.40347   -594833.13346                  22341641.1384
        24.2504         22.7504
  23521344.4424    -610462.02646   -418964.63746                  23521352.2164
        12.7504         12.7504
  23388976.1304    3313558.24846   2503382.42646                  23388983.6104
        19.2504         16.7504
 02  7 11 17  2 15.0010000  0  9G26G29G 6G15G17G18G21G 3G23
  22820677.4424    2265733.62846   1712827.17946                  22820684.7474
        17.5004         15.5004
  23802609.2394    2557321.34246   1933082.15346                  23802616.6384
        14.0004         12.5004
  22719735.5834    3618861.85846   2726801.52446                  22719744.6694
        16.2504         16.7504
  20636087.5284     744947.35648    581050.55247                  20636094.1854
        29.7504         27.2504
  20864413.3104    1201394.12347    923818.47946                  20864420.0014
        25.7504         25.5004
  20622942.8644     424109.71947    343648.85447                  20622948.1494
        23.5004         26.2504
  22340584.2784    -840470.30747   -599129.65946                  22340592.2394
        23.5004         22.7504
  23517336.2714    -631525.10346   -435377.39846                  23517344.3964
        13.5004         12.5004
  23401214.3494    3377872.82346   2553497.64646                  23401221.9934
        18.5004         17.0004
 02  7 11 17  2 30.0010000  0  9G26G29G 6G15G17G18G21G 3G23
  22830195.7714    2315751.96446   1751802.48846                  22830203.2044
        17.7504         15.5004
  23812819.0674    2610972.93646   1974888.56745                  23812826.1384
        13.5004         11.7504
  22733158.5674    3689399.93446   2781766.17046                  22733167.7594
        15.7504         17.5004
  20640179.3964     766450.37748    597806.13747                  20640186.1574
        29.5004         27.2504
  20869920.4274    1230332.53347    946367.87947                  20869926.9664
        25.5004         25.7504
  20626257.0284     441526.06447    357220.02747                  20626262.2554
        24.0004         26.2504
  22339577.9894    -845757.66747   -603249.64546                  22339586.0444
        23.5004         22.2504
  23513369.9274    -652367.36446   -451618.07746                  23513378.1464
        13.2504         12.2504
  23413487.2314    3442365.44746   2603751.60846                  23413494.8294
        19.5004         16.5004
 02  7 11 17  2 45.0010000  0  9G26G29G 6G15G17G18G21G 3G23
  22839770.6304    2366070.46546   1791011.68346                  22839778.0754
        17.2504         15.0004
  23823079.2864    2664891.02046   2016902.62946                  23823087.2354
        14.2504         12.5004
  22746625.0604    3760166.57346   2836908.88946                  22746634.9544
        15.7504         18.2504
  20644314.2634     788178.73748    614737.32247                  20644320.7314
        29.7504         27.2504
  20875468.3644    1259488.74247    969086.99647                  20875475.1964
        25.5004         25.7504
  20629622.1614     459209.05747    370998.97447                  20629627.1534
        23.7504         26.5004
  22338615.6694    -850816.06047   -607191.22846                  22338623.5014
        25.0004         22.7504
  23509445.9424    -672985.99946   -467684.53446                  23509454.5014
        13.2504         12.7504
  23425794.1064    3507038.30346   2654146.00246                  23425801.9624
        19.0004         16.7504
 02  7 11 17  3  0.0010000  0  9G26G29G 6G15G17G18G21G 3G23
  22849402.1464    2416683.64246   1830450.51546                  22849409.5794
        17.5004         15.2504
  23833389.2714    2719070.12746   2059120.08346                  23833396.5054
        13.0004         12.2504
  22760134.7634    3831156.19546   2892225.36546                  22760144.3414
        17.5004         18.7504
  20648490.8254     810127.25048    631840.04447                  20648497.1774
        29.5004         27.2504
  20881057.4114    1288857.43747    991971.67047                  20881064.1614
        26.2504         26.2504
  20633036.8494     477153.29947    384981.49147                  20633041.9584
        23.5004         26.2504
  22337695.5054    -855650.69047   -610958.45346                  22337703.5834
        23.7504         22.7504
  23505563.9814    -693386.01846   -483580.61346                  23505572.0244
        13.5004         12.7504
  23438133.9584    3571885.87046   2704676.53546                  23438141.7904
        18.0004         16.5004
 02  7 11 17  3 15.0010000  0  9G26G29G 6G15G17G18G21G 3G23
  22859089.2634    2467587.26246   1870115.66646                  22859096.5444
        17.7504         15.0004
  23843747.7474    2773505.90946   2101537.58146                  23843754.9934
        13.2504         12.0004
  22773685.4584    3902364.57946   2947712.33146                  22773694.3454
        19.0004         19.0004
  20652708.7164     832291.89248    649111.18547                  20652715.1614
        29.2504         27.0004
  20886685.6924    1318434.70347   1015018.86647                  20886692.3134
        26.0004         26.2504
  20636500.1304     495354.62047    399164.32347                  20636505.2514
        23.7504         26.2504
  22336817.0214    -860265.80947   -614554.61746                  22336825.1104
        23.5004         22.7504
  23501723.4034    -713571.15446   -499309.26146                  23501732.2784
        14.0004         13.0004
  23450506.7164    3636903.92846   2755339.92746                  23450514.6534
        17.5004         16.2504
 02  7 11 17  3 30.0010000  0  9G26G29G 6G15G17G18G21G 3G23
  22868830.0914    2518777.41546   1910004.08346                  22868837.1614
        18.0004         15.2504
  23854154.8644    2828194.58546   2144152.08446                  23854162.6494
        13.2504         12.2504
  22787276.6464    3973787.93146   3003366.82346                  22787285.2514
        19.0004         18.0004
  20656967.0214     854669.16448    666548.00947                  20656973.3374
        29.5004         27.0004
  20892353.2314    1348217.09347   1038225.91247                  20892360.0174
        26.2504         26.0004
  20640012.0754     513809.42347    413544.67347                  20640017.3254
        23.2504         25.7504
  22335980.0674    -864664.88247   -617982.43646                  22335988.2284
        23.7504         23.0004
  23497922.2944    -733544.48346   -514872.88546                  23497929.5524
        12.5004         12.7504
  23462911.0834    3702088.66946   2806133.19946                  23462919.1734
        17.7504         16.2504
 02  7 11 17  3 45.0010000  0  9G26G29G 6G15G17G18G21G 3G23
  22878626.8024    2570260.51646   1950120.75446                  22878633.7434
        17.2504         15.2504
  23864611.2634    2883142.63246   2186968.73446                  23864619.4704
        13.0004         12.2504
  22800910.3334    4045432.58146   3059193.75346                  22800918.5174
        18.5004         16.2504
  20661266.9894     877265.71148    684155.70047                  20661273.3174
        29.0004         27.0004
  20898060.8804    1378211.18747   1061597.91147                  20898067.5834
        26.2504         26.0004
  20643573.4814     532524.27647    428127.67047                  20643578.7434
        22.7504         26.2504
  22335185.3884    -868841.07847   -621236.59846                  22335193.6534
        23.0004         22.7504
  23494162.9424    -753299.17446   -530266.12146                  23494170.9504
        13.5004         12.7504
  23475347.8494    3767446.48946   2857061.33846                  23475355.6104
        17.7504         15.7504
 02  7 11 17  4  0.0010000  0  9G26G29G 6G15G17G18G21G 3G23
  22888477.9504    2622027.13446   1990458.36446                  22888484.7824
        17.5004         15.2504
  23875114.7554    2938340.43046   2229980.00846                  23875123.3024
        13.0004         12.5004
  22814583.9894    4117289.09446   3115185.78946                  22814591.6224
        16.7504         15.0004
  20665606.8964     900072.34248    701927.08947                  20665613.1774
        29.5004         27.0004
  20903806.9814    1408407.95947   1085127.85447                  20903813.8534
        26.5004         26.0004
  20647182.3104     551489.90747    442906.07947                  20647187.4664
        24.0004         26.0004
  22334431.1144    -872803.54147   -624324.19346                  22334439.0994
        23.2504         22.7504
  23490443.9424    -772844.11646   -545495.92646                  23490452.1494
        13.5004         12.5004
  23487816.2554    3832968.01546   2908117.02546                  23487824.3454
        16.2504         15.7504
 02  7 11 17  4 15.0010000  0  9G26G29G 6G15G17G18G21G 3G23
  22898382.1924    2674075.99946   2031015.90646                  22898389.4854
        17.7504         15.0004
  23885666.0604    2993786.92646   2273185.04646                  23885673.9624
        13.7504         12.5004
  22828297.8644    4189356.22046   3171341.92246                  22828306.0604
        14.2504         14.2504
  20669986.6144     923088.19948    719861.50847                  20669993.0484
        29.5004         27.0004
  20909591.6854    1438806.39447   1108814.93247                  20909598.2354
        26.0004         26.0004
  20650838.8334     570705.17647    457879.00747                  20650843.8134
        23.2504         26.2504
  22333717.6774    -876553.20647   -627245.98546                  22333725.6264
        24.0004         22.7504
  23486764.7004    -792179.98446   -560562.82546                  23486772.3684
        13.5004         12.5004
  23500315.9114    3898652.08246   2959299.36046                  23500324.0134
        16.7504         16.0004
 02  7 11 17  4 30.0010000  0  9G26G29G 6G15G17G18G21G 3G23
  22908340.5834    2726406.49346   2071792.89246                  22908347.8174
        16.0004         15.0004
  23896264.1694    3049481.27346   2316583.23446                  23896271.5444
        13.2504         12.2504
  22842051.0364    4261633.28546   3227661.61846                  22842060.4274
        13.0004         14.2504
  20674406.2164     946312.96448    737958.73047                  20674412.6854
        29.2504         27.2504
  20915414.4814    1469406.24947   1132658.97147                  20915421.0444
        26.0004         25.7504
  20654542.9744     590169.60547    473046.09447                  20654548.0014
        23.5004         26.0004
  22333044.2314    -880090.80747   -630002.53646                  22333052.5214
        22.2504         22.2504
  23483124.9114    -811307.01646   -575466.96946                  23483132.8024
        14.5004         12.5004
  23512845.6854    3964498.05946   3010607.87146                  23512854.1144
        17.0004         16.0004
 02  7 11 17  4 45.0010000  0  9G26G29G 6G15G17G18G21G 3G23
  22918351.4274    2779012.45746   2112784.52946                  22918358.8134
        17.0004         15.0004
  23906908.2554    3105417.49946   2360169.85446                  23906916.2164
        12.7504         12.2504
  22855844.3414    4334114.07946   3284140.05246                  22855854.1304
        14.7504         15.5004
  20678864.4354     969740.78748    756214.17847                  20678871.0324
        29.0004         27.2504
  20921274.7784    1500201.46747   1156655.23146                  20921281.3414
        26.0004         25.5004
  20658293.2084     609877.10947    488402.58447                  20658298.3994
        23.2504         26.0004
  22332410.6694    -883422.11747   -632598.33946                  22332418.5014
        24.7504         22.7504
  23479523.3804    -830230.66346   -590212.63746                  23479530.8494
        14.0004         12.5004
  23525406.0284    4030499.81446   3062037.75646                  23525414.4464
        17.2504         15.7504
 02  7 11 17  5  0.0010000  0  9G26G29G 6G15G17G18G21G 3G23
  22928413.8254    2831893.33946   2153990.39846                  22928421.6694
        16.2504         15.5004
  23917598.8254    3161594.99346   2403944.52946                  23917606.4354
        13.2504         12.0004
  22869675.9894    4406798.12746   3340776.88146                  22869685.4384
        16.0004         16.7504
  20683361.0604     993371.40048    774627.64547                  20683367.7044
        29.2504         27.2504
  20927171.7474    1531191.97947   1180803.66946                  20927178.5324
        26.0004         25.5004
  20662089.6304     629827.40747    503948.26747                  20662094.8924
        23.2504         26.0004
  22331815.5994    -886547.27147   -635033.50746                  22331823.7824
        23.7504         22.7504
  23475961.3174    -848950.90646   -604799.83746                  23475968.9274
        13.2504         13.0004
  23537994.8494    4096656.81046   3113588.61346                  23538002.8334
        17.0004         15.7504
 02  7 11 17  5 15.0010000  0  9G26G29G 6G15G17G18G21G 3G23
  22938529.3644    2885051.01046   2195411.95846                  22938537.8644
        15.7504         15.7504
  23928335.5284    3218015.59246   2447908.58945                  23928344.1694
        12.5004         11.5004
  22883546.6384    4479687.32346   3397573.54946                  22883556.0634
        18.2504         18.0004
  20687896.8254    1017206.98648    793200.83347                  20687903.5634
        29.5004         27.5004
  20933106.9274    1562379.97447   1205105.99846                  20933113.6774
        25.5004         25.2504
  20665932.6224     650022.68847    519684.84747                  20665937.9074
        23.5004         26.0004
  22331260.8414    -889464.07447   -637306.31646                  22331268.4854
        24.5004         22.7504
  23472437.8644    -867465.22946   -619226.54746                  23472445.6614
        13.0004         12.7504
  23550614.2474    4162971.10146   3165262.03646                  23550622.9584
        17.0004         16.0004
 02  7 11 17  5 30.0010000  0  9G26G29G 6G15G17G18G21G 3G23
  22948697.2554    2938483.06446   2237047.32046                  22948706.2124
        17.0004         15.5004
  23939117.5214    3274676.90746   2492060.25545                  23939125.3174
        12.2504         11.7504
  22897455.8254    4552779.15246   3454528.13246                  22897464.8174
        19.5004         18.2504
  20692471.2244    1041245.40348    811932.07047                  20692477.8104
        29.7504         27.5004
  20939078.8334    1593763.27147   1229560.49546                  20939085.5364
        25.5004         25.2504
  20669821.9034     670460.58347    535610.46947                  20669827.0244
        23.7504         26.2504
  22330744.8564    -892174.86647   -639418.61346                  22330753.0284
        22.0004         22.7504
  23468953.3884    -885775.65746   -633494.39846                  23468960.0794
        13.0004         12.5004
  23563262.7554    4229440.18346   3217056.08346                  23563271.1614
        16.5004         15.5004
 02  7 11 17  5 45.0010000  0  9G26G29G 6G15G17G18G21G 3G23
  22958917.8414    2992191.26246   2278897.84146                  22958926.3884
        17.0004         15.5004
  23949946.0134    3331580.67546   2536400.82945                  23949954.0674
        12.2504         11.5004
  22911403.6064    4626075.45947   3511642.06646                  22911411.8374
        20.0004         18.0004
  20697084.8724    1065488.89448    830823.09847                  20697091.6224
        29.7504         27.5004
  20945088.6304    1625344.07547   1254168.90546                  20945095.4034
        25.5004         25.2504
  20673757.6384     691142.95847    551726.59747                  20673762.9704
        24.0004         26.2504
  22330268.6224    -894677.61947   -641368.76346                  22330276.5484
        23.5004         22.2504
  23465508.4664    -903879.78946   -647601.50346                  23465516.3684
        13.5004         12.7504
  23575941.2554    4296065.89446   3268972.16646                  23575949.7084
        16.5004         15.5004
 02  7 11 17  6  0.0010000  0  9G26G29G 6G15G17G18G21G 3G23
  22969190.2554    3046174.70246   2320962.84946                  22969198.0874
        18.0004         15.5004
  23960820.6384    3388726.03346   2580929.65145                  23960828.4934
        13.0004         11.5004
  22925390.0914    4699575.28346   3568914.59646                  22925397.9584
        18.5004         16.7504
  20701736.9354    1089936.75348    849873.38947                  20701743.6494
        29.7504         27.2504
  20951135.7474    1657121.69947   1278930.66746                  20951142.3214
        25.7504         25.2504
  20677739.9034     712069.06247    568032.64947                  20677745.3644
        23.5004         26.5004
  22329831.8254    -896972.79547   -643157.19146                  22329840.1034
        23.2504         22.5004
  23462102.5524    -921777.91546   -661548.07346                  23462111.0404
        13.2504         12.5004
  23588649.1614    4362847.27646   3321009.56246                  23588657.9664
        16.7504         15.5004
 02  7 11 17  6 15.0010000  0  9G26G29G 6G15G17G18G21G 3G23
  22979515.8334    3100434.55846   2363243.23846                  22979523.7124
        18.2504         15.7504
  23971740.8334    3446114.29846   2625647.76145                  23971747.8334
        12.5004         11.7504
  22939415.9354    4773279.87046   3626346.65946                  22939424.9624
        16.5004         16.5004
  20706428.3104    1114590.49048    869084.09247                  20706435.0714
        30.0004         27.2504
  20957220.7784    1689097.62447   1303846.95346                  20957227.3994
        26.0004         25.5004
  20681768.5674     733240.31747    584529.73147                  20681774.0284
        23.2504         26.5004
  22329434.7474    -899059.02147   -644782.80046                  22329442.7434
        23.0004         22.2504
  23458736.4664    -939468.28746   -675332.72746                  23458743.9704
        13.5004         12.7504
  23601387.3564    4429785.70046   3373169.34146                  23601396.1264
        17.0004         15.2504
 02  7 11 17  6 30.0010000  0  9G26G29G 6G15G17G18G21G 3G23
  22989893.8494    3154971.40046   2405739.45246                  22989901.7634
        17.7504         15.7504
  23982708.0364    3503745.86846   2670555.45445                  23982715.8564
        12.5004         11.7504
  22953480.1224    4847189.61946   3683938.57346                  22953489.3254
        16.5004         15.7504
  20711159.0444    1139450.82648    888455.77147                  20711165.8414
        29.0004         27.5004
  20963343.4814    1721272.65347   1328918.38847                  20963350.1854
        26.2504         25.7504
  20685843.9814     754657.29447    601218.28647                  20685849.1964
        23.5004         26.2504
  22329077.5604    -900935.73247   -646245.15346                  22329085.5794
        22.0004         22.0004
  23455409.6144    -956950.02246   -688954.83246                  23455416.3884
        13.5004         12.7504
  23614155.4424    4496881.60346   3425451.82546                  23614164.4584
        16.5004         15.2504
 02  7 11 17  6 45.0010000  0  9G26G29G 6G15G17G18G21G 3G23
  23000324.7314    3209786.81946   2448452.74746                  23000332.8454
        17.0004         15.7504
  23993721.5994    3561622.41546   2715654.03745                  23993729.3494
        12.0004         11.7504
  22967583.9584    4921306.33046   3741691.78546                  22967592.7394
        15.5004         15.2504
  20715929.5364    1164519.85448    907990.07047                  20715936.3454
        29.2504         27.2504
  20969504.3024    1753648.94447   1354146.64747                  20969510.8994
        26.7504         26.0004
  20689966.5834     776321.88847    618099.78847                  20689971.7284
        23.7504         26.5004
  22328760.5994    -902600.53447   -647542.36746                  22328768.9814
        22.7504         22.5004
  23452122.9424    -974220.70746   -702412.48646                  23452130.3644
        13.2504         13.0004
  23626953.6774    4564136.81446   3477858.43446                  23626962.1064
        16.5004         15.0004
 02  7 11 17  7  0.0010000  0  9G26G29G 6G15G17G18G21G 3G23
  23010811.8884    3264894.83746   2491394.04246                  23010819.6144
        18.2504         16.0004
  24004784.3024    3619757.91146   2760954.40745                  24004792.0174
        12.7504         11.7504
  22981729.9814    4995643.89846   3799617.08146                  22981739.0674
        14.7504         15.0004
  20720742.4584    1189811.87148    927698.14047                  20720749.3024
        29.5004         27.2504
  20975706.3804    1786240.68747   1379542.82047                  20975712.6614
        26.7504         26.0004
  20694139.0754     798248.28247    635185.29547                  20694144.1964
        23.5004         26.5004
  22328487.1144    -904039.28747   -648663.46046                  22328495.0994
        23.2504         22.5004
  23448879.2714    -991265.80946   -715694.34646                  23448886.9744
        14.5004         13.0004
  23639784.6924    4631565.31246   3530400.08346                  23639792.9934
        15.7504         15.0004
 02  7 11 17  7 15.0010000  0  9G26G29G 6G15G17G18G21G 3G23
  23021355.5214    3320302.01046   2534568.43646                  23021362.3804
        18.5004         15.5004
  24015897.5914    3678158.97545   2806461.68445                  24015905.9274
        11.5004         11.7504
  22995919.4814    5070208.93646   3857719.60446                  22995929.1424
        15.2504         15.7504
  20725599.2394    1215333.76248    947585.32547                  20725605.7904
        28.7504         27.2504
  20981950.6534    1819054.71447   1405112.18247                  20981957.4744
        26.5004         26.2504
  20698362.6224     820443.31647    652480.13147                  20698367.9424
        23.7504         26.2504
  22328257.3494    -905245.15147   -649603.08746                  22328265.6144
        22.7504         22.5004
  23445680.2864   -1008078.17046   -728794.86046                  23445687.3804
        14.2504         12.7504
  23652650.2244    4699173.79946   3583081.96946                  23652658.1144
        16.0004         15.0004
 02  7 11 17  7 30.0010000  0  9G26G29G 6G15G17G18G21G 3G23
  23031957.9974    3376017.44746   2577983.04546                  23031965.3374
        17.5004         15.7504
  24027063.2864    3736834.60145   2852182.94345                  24027070.8964
        11.5004         11.2504
  23010153.9194    5145010.45346   3916006.39246                  23010163.4034
        15.7504         16.0004
  20730501.2084    1241094.85448    967658.90047                  20730507.8764
        30.0004         27.2504
  20988239.0604    1852100.55147   1430862.16947                  20988245.9034
        26.7504         26.0004
  20702639.1384     842916.06847    669991.36747                  20702644.5634
        23.5004         26.2504
  22328073.8564    -906208.91547   -650354.04146                  22328081.7124
        23.0004         22.2504
  23442527.0214   -1024648.12746   -741706.48246                  23442534.9584
        14.5004         13.5004
  23665551.5604    4766971.34146   3635911.18046                  23665560.5404
        16.0004         14.7504
 02  7 11 17  7 45.0010000  0  9G26G29G 6G15G17G18G21G 3G23
  23042621.4274    3432056.03446   2621649.46046                  23042628.7674
        17.5004         15.5004
  24038283.8254    3795799.94745   2898129.93145                  24038292.3604
        11.2504         11.2504
  23024435.9504    5220063.49946   3974489.19346                  23024445.2124
        15.5004         15.7504
  20735451.9034    1267110.48748    987930.81947                  20735458.5014
        29.7504         27.2504
  20994574.5524    1885393.41547   1456804.65047                  20994581.5754
        25.5004         25.7504
  20706971.2944     865681.69547    687730.82447                  20706976.3924
        23.7504         26.2504
  22327939.5604    -906915.31347   -650904.46646                  22327947.3334
        22.0004         22.0004
  23439422.3884   -1040960.15546   -754417.11046                  23439429.9504
        14.7504         13.7504
  23678491.6854    4834972.96046   3688899.40946                  23678500.5714
        14.7504         15.0004
 02  7 11 17  8  0.0010000  0  9G26G29G 6G15G17G18G21G 3G23
  23053349.1224    3488430.42546   2665577.54146                  23053356.7084
        17.7504         15.5004
  24049562.6064    3855067.53045   2944312.42945                  24049571.4934
        11.5004         11.5004
  23038768.4354    5295380.70046   4033177.83446                  23038778.1654
        16.0004         15.5004
  20740453.4504    1293393.50048   1008411.09047                  20740460.1774
        30.0004         27.2504
  21000959.4274    1918946.30047   1482949.72847                  21000966.7204
        25.0004         25.7504
  20711361.5134     888753.05647    705708.50847                  20711366.7634
        23.5004         26.5004
  22327856.3884    -907351.30447   -651244.18246                  22327864.7944
        22.2504         22.5004
  23436370.6534   -1057001.02246   -766916.47046                  23436378.3924
        14.5004         13.5004
  23691473.5284    4903191.29246   3742056.50346                  23691482.6964
        15.2504         14.5004
 02  7 11 17  8 15.0010000  0  9G26G29G 6G15G17G18G21G 3G23
  23064142.8024    3545151.99446   2709776.13446                  23064150.4934
        17.7504         15.2504
  24060900.5284    3914648.67345   2990739.27045                  24060907.3604
        11.7504         11.7504
  23053153.4424    5370973.28646   4092081.05946                  23053162.3174
        17.5004         15.7504
  20745507.9744    1319955.52648   1029108.76947                  20745514.6064
        30.2504         27.5004
  21007396.0604    1952770.86147   1509306.49146                  21007403.3764
        25.2504         25.5004
  20715812.3804     912141.50647    723933.27447                  20715817.8174
        23.2504         26.5004
  22327827.2244    -907505.45947   -651364.26346                  22327835.4784
        23.0004         22.5004
  23433371.8564   -1072758.88846   -779195.29446                  23433379.9464
        15.0004         13.7504
  23704498.5994    4971637.77846   3795391.38146                  23704507.8844
        16.0004         14.7504
 02  7 11 17  8 30.0010000  0  9G26G29G 6G15G17G18G21G 3G23
  23075005.8174    3602236.89846   2754257.86646                  23075013.4744
        18.5004         15.7504
  24072300.9194    3974559.51345   3037423.01645                  24072308.7864
        11.7504         11.2504
  23067594.0134    5446857.44446   4151211.49746                  23067602.2554
        18.5004         16.7504
  20750618.8024    1346813.11548   1050036.74947                  20750625.5054
        30.0004         27.5004
  21013887.2394    1986883.47247   1535887.72246                  21013894.3454
        25.2504         25.5004
  20720326.3644     935863.59747    742418.01947                  20720331.7554
        23.5004         26.2504
  22327854.9894    -907361.31047   -651251.93046                  22327862.3174
        23.2504         22.0004
  23430430.2164   -1088217.05246   -791240.60846                  23430438.8104
        14.0004         13.5004
  23717569.9274    5040328.67446   3848916.71746                  23717579.1534
        16.2504         14.7504
 02  7 11 17  8 45.0010000  0  9G26G29G 6G15G17G18G21G 3G23
  23085940.0364    3659695.85646   2799031.05246                  23085947.5404
        17.7504         15.7504
  24083766.2864    4034810.91445   3084372.11745                  24083774.4354
        11.7504         11.5004
  23082091.5054    5523044.00946   4210577.57246                  23082100.2864
        18.0004         16.5004
  20755787.8884    1373977.43848   1071203.74447                  20755794.5564
        28.7504         27.5004
  21020435.9194    2021295.40947   1562702.18346                  21020442.8724
        25.5004         25.5004
  20724906.3724     959930.18647    761171.19847                  20724911.5754
        23.7504         26.5004
  22327941.1224    -906907.68047   -650898.45446                  22327948.8604
        22.0004         22.0004
  23427548.0054   -1103364.16346   -803043.52746                  23427556.6464
        14.5004         13.5004
  23730689.9424    5109274.77546   3902640.90646                  23730699.0634
        16.2504         14.7504
 02  7 11 17  9  0.0010000  0  9G26G29G 6G15G17G18G21G 3G23
  23096947.8804    3717542.87746   2844106.62746                  23096954.7984
        18.2504         15.5004
  24095299.0754    4095416.98245   3131597.61745                  24095307.5054
        11.7504         11.5004
  23096649.7864    5599546.93746   4270190.15646                  23096658.7554
        16.7504         16.7504
  20761018.3724    1401462.81148   1092620.89747                  20761025.0524
        29.5004         27.2504
  21027044.1384    2056020.93347   1589761.00846                  21027050.8994
        25.2504         25.5004
  20729554.2394     984355.43247    780203.85247                  20729559.3494
        23.0004         26.2504
  22328088.7554    -906130.31547   -650292.67046                  22328096.8924
        22.2504         22.5004
  23424727.0994   -1118185.62646   -814592.68246                  23424735.3064
        13.5004         13.5004
  23743861.3494    5178490.15846   3956574.92446                  23743870.1654
        16.0004         14.7504
 02  7 11 17  9 15.0010000  0  9G26G29G 6G15G17G18G21G 3G23
  23108027.6464    3775766.62746   2889475.75246                  23108035.1734
        17.2504         15.2504
  24106897.8414    4156366.16746   3179090.43745                  24106905.8494
        12.5004         11.5004
  23111265.5604    5676354.88046   4330040.40846                  23111274.8684
        14.5004         16.0004
  20766307.5214    1429258.19048   1114279.62347                  20766314.1304
        28.7504         27.2504
  21033709.9194    2091048.94147   1617055.54946                  21033716.5874
        26.0004         25.5004
  20734268.1924    1009128.04247    799507.18547                  20734273.5484
        23.2504         26.2504
  22328296.3414    -905040.42147   -649443.38046                  22328304.1614
        23.0004         22.5004
  23421966.5364   -1132692.21846   -825896.51646                  23421974.9194
        14.7504         14.5004
  23757081.8964    5247963.50146   4010709.95046                  23757091.1924
        16.2504         15.0004
 02  7 11 17  9 30.0010000  0  9G26G29G 6G15G17G18G21G 3G23
  23119177.6694    3834360.74046   2935133.48746                  23119184.8924
        17.5004         15.0004
  24118559.3964    4217652.23345   3226845.79145                  24118567.6614
        11.0004         11.5004
  23125938.3884    5753461.61046   4390123.45346                  23125947.7434
        13.0004         15.0004
  20771654.6064    1457357.61248   1136175.26147                  20771661.3804
        28.7504         27.2504
  21040431.6384    2126373.51647   1644581.16346                  21040438.0014
        26.0004         25.5004
  20739047.2714    1034241.93947    819076.44547                  20739052.4034
        23.7504         26.5004
  22328562.0364    -903644.07147   -648355.30146                  22328569.8104
        22.7504         22.5004
  23419265.2084   -1146889.62446   -836959.38646                  23419272.6654
        15.2504         13.5004
  23770350.1224    5317688.59446   4065041.12746                  23770358.9974
        16.2504         14.7504
 02  7 11 17  9 45.0010000  0  9G26G29G 6G15G17G18G21G 3G23
  23130393.7474    3893302.80246   2981062.32946                  23130401.4624
        17.0004         15.2504
  24130282.4034    4279252.65445   3274846.09145                  24130290.9854
        11.5004         11.2504
  23140664.4584    5830844.54346   4450421.73146                  23140673.9194
        13.5004         15.2504
  20777055.3644    1485738.78248   1158290.46047                  20777062.2244
        28.2504         27.2504
  21047205.9744    2161972.40847   1672320.53646                  21047212.1144
        26.5004         25.5004
  20743886.8964    1059674.78447    838894.23847                  20743892.3104
        24.0004         26.2504
  22328881.9274    -901963.40947   -647045.67146                  22328889.6774
        23.7504         23.0004
  23416617.9584   -1160799.86646   -847798.49946                  23416626.0834
        15.5004         14.2504
  23783661.7944    5387642.94046   4119550.95946                  23783669.8724
        15.2504         15.0004
 02  7 11 17 10  0.0010000  0  9G26G29G 6G15G17G18G21G 3G23
  23141674.4664    3952582.66846   3027254.40346                  23141681.9114
        17.0004         15.5004
  24142062.4974    4341157.51446   3323083.60445                  24142071.7944
        12.5004         11.5004
  23155440.7084    5908493.73346   4510927.47646                  23155450.2164
        15.2504         16.0004
  20782508.1694    1514392.13748   1180617.73547                  20782515.0634
        29.5004         27.2504
  21054030.7004    2197836.01247   1700266.17847                  21054037.1104
        26.5004         25.7504
  20748785.7084    1085416.74147    858952.89647                  20748791.1224
        23.5004         26.2504
  22329253.9114    -900008.27347   -645522.16646                  22329261.9894
        23.0004         23.2504
  23414023.7004   -1174432.28546   -858421.14346                  23414031.5564
        15.0004         14.5004
  23797015.6854    5457816.64146   4174231.71046                  23797023.6924
        16.2504         15.0004
 02  7 11 17 10 15.0010000  0  9G26G29G 6G15G17G18G21G 3G23
  23153015.3494    4012179.71446   3073693.62446                  23153023.3924
        18.0004         15.2504
  24153896.3724    4403346.08446   3371542.20645                  24153904.9424
        12.2504         11.2504
  23170263.9114    5986388.48646   4571624.59846                  23170273.1964
        16.7504         16.0004
  20788008.7004    1543297.34848   1203141.27547                  20788015.6064
        29.2504         27.5004
  21060901.6614    2233944.00147   1728402.25146                  21060908.1304
        26.5004         25.5004
  20753738.8254    1111447.32247    879236.46347                  20753743.9934
        24.5004         26.5004
  22329674.2394    -897798.99747   -643800.62646                  22329682.2944
        23.2504         23.0004
  23411478.7244   -1187806.92246   -868842.92046                  23411486.2634
        15.2504         14.2504
  23810407.0674    5528189.07846   4229067.33446                  23810415.3104
        16.0004         14.7504
 02  7 11 17 10 30.0010000  0  9G26G29G 6G15G17G18G21G 3G23
  23164412.4974    4072069.89746   3120361.27046                  23164420.3884
        19.2504         15.7504
  24165780.2084    4465794.33545   3420203.14745                  24165789.4704
        11.5004         11.5004
  23185128.9034    6064504.67746   4632494.28646                  23185138.1774
        17.0004         15.5004
  20793552.5214    1572430.66048   1225842.54447                  20793559.1304
        30.0004         27.7504
  21067814.8964    2270272.54447   1756710.19246                  21067821.2124
        26.5004         25.5004
  20758742.7784    1137742.52147    899726.21047                  20758747.7124
        24.2504         26.5004
  22330138.4034    -895359.21047   -641899.47746                  22330145.7434
        23.7504         23.0004
  23408977.8884   -1200947.34646   -879082.17446                  23408985.7084
        15.2504         14.0004
  23823831.7004    5598736.22646   4284039.09946                  23823840.1304
        16.0004         14.7504
 02  7 11 17 10 45.0010000  0  9G26G29G 6G15G17G18G21G 3G23
  23175861.8724    4132237.56746   3167245.14046                  23175869.6924
        17.7504         15.7504
  24177709.8254    4528486.60646   3469054.21345                  24177717.5634
        12.2504         11.7504
  23200033.1534    6142826.84346   4693524.45846                  23200042.0874
        16.7504         15.5004
  20799137.0834    1601776.83148   1248709.68047                  20799143.5994
        30.5004         27.7504
  21074766.8804    2306806.52947   1785178.22446                  21074773.3964
        26.0004         25.5004
  20763794.0054    1164287.08347    920410.27647                  20763798.9504
        23.5004         26.2504
  22330643.8414    -892704.19247   -639830.61946                  22330651.4624
        23.0004         22.7504
  23406519.0994   -1213868.46646   -889150.57146                  23406526.8494
        15.7504         14.2504
  23837286.8334    5669442.63246   4339134.95446                  23837295.6384
        15.5004         14.5004
 02  7 11 17 11  0.0010000  0  9G26G29G 6G15G17G18G21G 3G23
  23187360.6774    4192663.70846   3214330.41546                  23187369.1064
        17.2504         15.5004
  24189683.0444    4591403.88446   3518080.64845                  24189690.0094
        12.2504         11.5004
  23214973.0444    6221335.82946   4754700.19446                  23214983.0094
        17.5004         16.0004
  20804758.3964    1631317.00548   1271728.00347                  20804764.8994
        30.5004         27.5004
  21081754.6224    2343527.13647   1813791.67646                  21081761.4934
        25.5004         25.5004
  20768889.1144    1191062.10747    941273.92947                  20768894.2944
        23.7504         26.2504
  22331186.3964    -889852.72047   -637608.66446                  22331194.0524
        23.2504         22.7504
  23404099.0674   -1226588.87946   -899062.55946                  23404107.0284
        15.7504         14.7504
  23850768.8104    5740289.32046   4394340.11746                  23850777.3334
        15.2504         14.7504
 02  7 11 17 11 15.0010000  0  9G26G29G 6G15G17G18G21G 3G23
  23198905.9354    4253333.82546   3261605.80446                  23198914.1424
        16.2504         15.7504
  24201695.8804    4654531.72946   3567271.14045                  24201703.6184
        12.2504         11.5004
  23229945.7944    6300017.19446   4816010.25746                  23229955.6304
        17.7504         16.7504
  20810413.8254    1661037.06948   1294886.49147                  20810420.2004
        30.0004         27.5004
  21088775.1854    2380420.24347   1842539.52346                  21088782.3844
        25.5004         25.5004
  20774025.2554    1218053.21247    962305.96247                  20774030.2944
        23.7504         26.0004
  22331763.8334    -886819.09147   -635244.77846                  22331771.6184
        24.5004         23.2504
  23401714.0914   -1239122.45546   -908828.95146                  23401721.4784
        15.5004         14.5004
  23864274.5134    5811261.85946   4449643.33646                  23864282.5444
        16.2504         14.5004
 02  7 11 17 11 30.0010000  0  9G26G29G 6G15G17G18G21G 3G23
  23210494.8884    4314234.92846   3309061.18746                  23210502.8844
        16.7504         15.7504
  24213746.3024    4717857.24645   3616615.67745                  24213755.0834
        11.7504         11.2504
  23244948.8254    6378858.01646   4877444.56346                  23244958.0054
        17.5004         17.0004
  20816101.0364    1690924.52048   1318175.42347                  20816107.4814
        30.0004         27.5004
  21095826.1384    2417473.30447   1871412.02146                  21095833.2784
        26.0004         25.5004
  20779200.2944    1245247.61447    983496.41447                  20779205.2634
        24.2504         26.0004
  22332373.1774    -883615.94347   -632748.81746                  22332380.7394
        23.5004         23.0004
  23399361.9274   -1251481.68546   -918459.48646                  23399369.4544
        16.7504         14.2504
  23877801.5054    5882347.36646   4505034.60146                  23877809.9234
        15.0004         14.5004
 02  7 11 17 11 45.0010000  0  9G26G29G 6G15G17G18G21G 3G23
  23222126.9664    4375361.91546   3356692.56246                  23222134.5404
        17.7504         15.2504
  24225832.9744    4781375.26145   3666110.18545                  24225842.5054
        11.5004         11.2504
  23259981.0134    6457853.20246   4938999.15846                  23259990.1574
        16.5004         16.7504
  20821819.4744    1720974.62248   1341591.09047                  20821826.0834
        29.7504         27.5004
  21102906.5674    2454681.44747   1900405.34647                  21102913.8604
        25.2504         25.7504
  20784413.0364    1272640.31647   1004841.37747                  20784418.0054
        23.7504         26.0004
  22333014.3494    -880248.16747   -630124.54546                  22333022.4034
        24.2504         23.2504
  23397042.1144   -1263670.96446   -927957.59946                  23397050.2514
        15.5004         14.0004
  23891348.8564    5953540.78046   4560509.94346                  23891356.8884
        15.7504         14.5004
 02  7 11 17 12  0.0010000  0  9G26G29G 6G15G17G18G21G 3G23
  23233800.4894    4436707.18146   3404494.04046                  23233807.8764
        16.5004         15.5004
  24237955.3804    4845078.19545   3715748.79345                  24237963.1424
        10.7504         11.0004
  23275041.3724    6536995.15346   5000668.10846                  23275050.2354
        15.7504         15.7504
  20827567.1614    1751180.02148   1365127.76547                  20827573.6774
        29.7504         27.5004
  21110015.2864    2492037.52347   1929513.94747                  21110022.3684
        26.0004         26.0004
  20789661.9744    1300223.89047   1026335.07147                  20789667.2594
        23.5004         26.2504
  22333684.8494    -876722.94747   -627377.59746                  22333692.7284
        24.0004         23.2504
  23394753.5214   -1275697.33546   -937328.77346                  23394761.5874
        14.7504         14.5004
  23904915.7314    6024834.59046   4616063.50646                  23904923.7284
        15.5004         14.5004
 02  7 11 17 12 15.0010000  0  9G26G29G 6G15G17G18G21G 3G23
  23245515.1924    4498267.60646   3452463.17846                  23245522.4384
        17.5004         15.2504
  24250112.7004    4908962.99945   3765529.15045                  24250120.4624
        11.5004         11.2504
  23290128.6464    6616280.73646   5062448.97546                  23290138.0364
        14.0004         15.2504
  20833343.9424    1781537.85348   1388783.21847                  20833350.5054
        29.2504         27.5004
  21117151.5284    2529538.55547   1958735.51447                  21117158.6924
        26.5004         26.0004
  20794946.5754    1327995.47047   1047975.25747                  20794951.9664
        23.5004         26.0004
  22334385.0834    -873043.35647   -624510.36646                  22334393.1734
        24.5004         23.7504
  23392495.4194   -1287563.36346   -946575.00346                  23392503.0994
        15.7504         14.0004
  23918501.1384    6096225.79746   4671692.95746                  23918509.5794
        15.0004         14.5004
 02  7 11 17 12 30.0010000  0  9G26G29G 6G15G17G18G21G 3G23
  23257268.6144    4560031.87846   3500591.13646                  23257276.5404
        16.5004         15.5004
  24262302.0364    4973018.31345   3815442.33145                  24262310.3964
        11.2504         11.2504
  23305241.5754    6695698.77746   5124333.03346                  23305250.6964
        13.5004         14.7504
  20839148.0054    1812037.25748   1412548.97047                  20839154.6144
        28.7504         27.2504
  21124313.4814    2567173.73547   1988061.59847                  21124320.3414
        26.5004         26.0004
  20800265.0674    1355944.02947   1069753.35547                  20800270.3534
        23.2504         26.0004
  22335112.4274    -869220.16547   -621531.22946                  22335120.5754
        23.7504         23.5004
  23390265.8024   -1299279.72146   -955704.60046                  23390274.0564
        15.0004         14.2504
  23932103.0914    6167703.25646   4727389.60646                  23932111.2864
        15.5004         14.5004
 02  7 11 17 12 45.0010000  0  9G26G29G 6G15G17G18G21G 3G23
  23269061.5674    4622003.18546   3548880.43746                  23269069.4704
        17.0004         15.7504
  24274524.1064    5037247.28145   3865490.84445                  24274532.4314
        10.7504         11.2504
  23320380.2244    6775252.36746   5186322.72746                  23320389.6264
        14.5004         15.0004
  20844979.6464    1842681.73048   1436427.76647                  20844986.3254
        28.7504         27.2504
  21131501.5754    2604946.64147   2017494.99847                  21131508.1144
        26.7504         25.7504
  20805617.8724    1384072.78247   1091671.86747                  20805623.0874
        23.5004         26.0004
  22335867.9974    -865250.23747   -618437.75946                  22335875.3494
        23.2504         23.0004
  23388065.3254   -1310842.61746   -964714.61046                  23388073.6494
        14.2504         13.7504
  23945721.8644    6239270.12746   4783155.95346                  23945730.3534
        15.5004         14.2504
 02  7 11 17 13  0.0010000  0  9G26G29G 6G15G17G18G21G 3G23
  23280891.9814    4684175.58846   3597326.41846                  23280900.1304
        16.2504         15.2504
  24286778.3254    5101644.11645   3915670.15845                  24286786.7204
        11.5004         11.0004
  23335544.0054    6854935.55646   5248413.42046                  23335552.4234
        16.5004         15.5004
  20850837.4974    1873465.75648   1460415.29347                  20850844.1064
        28.2504         27.2504
  21138714.5054    2642851.44547   2047031.16846                  21138720.8804
        26.7504         25.5004
  20811003.8564    1412375.83647   1113726.18147                  20811009.1304
        23.5004         26.0004
  22336650.2394    -861139.00247   -615234.18746                  22336658.3174
        23.5004         23.5004
  23385893.3964   -1322257.40946   -973609.25346                  23385901.8374
        14.2504         14.5004
  23959356.5214    6310920.59246   4838987.42946                  23959364.5874
        15.7504         14.2504
 02  7 11 17 13 15.0010000  0  9G26G29G 6G15G17G18G21G 3G23
  23292761.2164    4746547.93446   3645928.21846                  23292769.3534
        16.5004         15.2504
  24299064.7864    5166207.57145   3965979.30445                  24299072.6654
        11.7504         10.7504
  23350731.7394    6934747.15846   5310604.17846                  23350740.6854
        18.0004         15.7504
  20856722.0054    1904388.35248   1484510.80147                  20856728.6034
        28.5004         27.5004
  21145952.4584    2680887.54647   2076669.65746                  21145958.8804
        27.0004         25.5004
  20816422.6464    1440852.29547   1135915.61847                  20816427.8254
        23.7504         26.0004
  22337459.5054    -856887.38647   -611921.21446                  22337467.7004
        23.7504         23.5004
  23383749.1464   -1333524.67646   -982388.90346                  23383757.8214
        14.2504         14.5004
  23973006.7944    6382653.52846   4894883.15346                  23973015.4234
        14.7504         14.5004
 02  7 11 17 13 30.0010000  0  9G26G29G 6G15G17G18G21G 3G23
  23304669.2474    4809123.63446   3694688.47146                  23304677.2784
        16.7504         15.5004
  24311383.0834    5230941.17645   4016421.03245                  24311391.4314
        11.5004         11.0004
  23365944.5914    7014690.69346   5372897.76546                  23365953.9464
        19.2504         16.2504
  20862633.5754    1935453.37948   1508717.30847                  20862640.1854
        29.7504         27.5004
  21153216.2244    2719058.61747   2106413.32546                  21153222.9974
        26.0004         25.2504
  20821875.2864    1469505.84947   1158243.06147                  20821880.2084
        24.0004         26.2504
  22338295.8964    -852491.68847   -608495.97846                  22338303.3414
        25.0004         23.5004
  23381633.9504   -1344640.42646   -991050.50946                  23381642.5794
        14.2504         14.7504
  23986672.9894    6454472.43846   4950845.91046                  23986681.9934
        14.2504         14.0004
 02  7 11 17 13 45.0010000  0  9G26G29G 6G15G17G18G21G 3G23
  23316613.8644    4871893.02846   3743599.66646                  23316622.2714
        16.5004         15.0004
  24323732.4504    5295835.26545   4066987.80745                  24323740.9744
        11.5004         11.0004
  23381180.4424    7094756.51546   5435286.62346                  23381189.7284
        18.7504         15.7504
  20868570.3884    1966651.51948   1533027.54347                  20868576.6694
        30.2504         27.7504
  21160503.7244    2757355.51247   2136255.03646                  21160510.3104
        26.0004         25.0004
  20827359.7084    1498326.96747   1180701.07647                  20827364.7244
        23.7504         26.0004
  22339157.9114    -847961.33047   -604965.81246                  22339165.9194
        23.7504         23.5004
  23379545.7164   -1355613.79146   -999601.16546                  23379554.2164
        14.5004         14.7504
  24000354.9504    6526367.78546   5006868.21646                  24000363.7084
        15.0004         14.0004
 02  7 11 17 14  0.0010000  0  9G26G29G 6G15G17G18G21G 3G23
  23328596.6384    4934864.10546   3792667.99746                  23328604.1884
        16.2504         15.0004
  24336112.9034    5360897.86145   4117685.89245                  24336120.8644
        11.0004         11.2504
  23396441.4814    7174952.62646   5497777.01746                  23396450.7204
        17.5004         14.5004
  20874534.1384    1997991.04848   1557447.94847                  20874540.6534
        30.0004         27.7504
  21167816.8104    2795786.50047   2166201.25046                  21167823.3604
        26.0004         25.2504
  20832877.4814    1527323.83947   1203296.05447                  20832882.5444
        23.7504         26.0004
  22340047.4114    -843287.81147   -601324.07746                  22340054.9504
        25.0004         23.7504
  23377486.4194   -1366436.10946  -1008034.11446                  23377495.1884
        15.7504         15.2504
  24014052.1144    6598347.64146   5062956.35546                  24014060.2284
        13.7504         13.7504
 02  7 11 17 14 15.0010000  0  9G26G29G 6G15G17G18G21G 3G23
  23340616.9034    4998030.58046   3841888.59546                  23340625.1574
        15.7504         14.7504
  24348525.0284    5426122.73645   4168510.41445                  24348532.6964
        11.0004         10.5004
  23411725.8964    7255272.81646   5560364.08746                  23411734.6424
        17.7504         14.5004
  20880523.6694    2029466.18048   1581974.00847                  20880530.1264
        30.2504         27.7504
  21175154.3724    2834345.62047   2196247.30346                  21175161.1464
        25.5004         25.2504
  20838427.8174    1556490.51947   1226023.34047                  20838432.9384
        24.0004         25.7504
  22340962.7714    -838476.94747   -597575.34546                  22340970.5794
        24.2504         23.7504
  23375453.9744   -1377112.93046  -1016353.67846                  23375461.9114
        14.7504         14.5004
  24027764.3414    6670405.93546   5119105.61846                  24027772.8534
        14.7504         13.7504
 02  7 11 17 14 30.0010000  0  9G26G29G 6G15G17G18G21G 3G23
  23352674.8104    5061395.39246   3891263.73546                  23352683.5324
        15.2504         14.5004
  24360967.9354    5491512.78845   4219463.67445                  24360976.3994
        11.2504         10.5004
  23427034.7004    7335720.00046   5623050.10646                  23427043.6924
        17.7504         15.2504
  20886539.5994    2061080.14348   1606608.25847                  20886546.0564
        30.2504         27.7504
  21182517.1384    2873036.19647   2226395.79446                  21182523.7714
        25.7504         25.2504
  20844010.9664    1585829.92447   1248885.21747                  20844016.0874
        23.5004         25.7504
  22341905.1064    -833525.84847   -593717.31746                  22341912.8454
        24.2504         23.5004
  23373451.5754   -1387640.74546  -1024557.16146                  23373459.8644
        15.7504         15.0004
  24041492.1694    6742545.68146   5175318.37246                  24041500.3064
        14.2504         14.0004
 02  7 11 17 14 45.0010000  0  9G26G29G 6G15G17G18G21G 3G23
  23364770.0754    5124955.52046   3940791.07146                  23364778.1304
        16.2504         14.7504
  24373442.4744    5557065.01745   4270543.26645                  24373450.3414
        11.2504         10.0004
  23442366.8964    7416291.23446   5685832.78146                  23442375.9354
        16.7504         14.7504
  20892581.2784    2092830.32148   1631348.65147                  20892587.7124
        30.0004         27.5004
  21189904.1774    2911855.63947   2256644.69246                  21189911.1424
        26.0004         25.2504
  20849626.5604    1615339.23247   1271879.49147                  20849631.7984
        23.2504         26.0004
  22342873.2554    -828437.16047   -589752.08446                  22342880.8764
        24.5004         23.2504
  23371476.1304   -1398021.99746  -1032646.41346                  23371485.1694
        16.0004         15.0004
  24055234.8564    6814763.94746   5231592.29446                  24055243.2634
        14.5004         14.0004
 02  7 11 17 15  0.0010000  0  9G26G29G 6G15G17G18G21G 3G23
  23376902.1854    5188711.69946   3990471.18946                  23376910.2394
        16.0004         14.2504
  24385947.7714    5622780.20645   4321749.88045                  24385956.2004
        11.5004         10.5004
  23457722.7164    7496987.15346   5748712.62946                  23457731.9194
        16.0004         14.2504
  20898649.1854    2124717.61848   1656195.88847                  20898655.7944
        29.7504         27.2504
  21197316.0754    2950804.84947   2286994.70846                  21197322.9584
        25.2504         25.2504
  20855274.2554    1645019.28547   1295006.81347                  20855279.3294
        23.5004         26.0004
  22343867.8334    -823209.94647   -585678.91346                  22343875.5134
        24.7504         23.7504
  23369528.2084   -1408255.50246  -1040620.55446                  23369536.2514
        16.2504         15.2504
  24068992.9504    6887061.43846   5287927.95946                  24069001.0054
        14.7504         13.7504
 02  7 11 17 15 15.0010000  0  9G26G29G 6G15G17G18G21G 3G23
  23389071.4894    5252661.82846   4040302.41046                  23389079.0634
        15.2504         14.7504
  24398483.4504    5688656.27345   4373081.84645                  24398491.0484
        11.0004         10.2504
  23473101.7714    7577805.91346   5811688.19046                  23473110.6574
        14.5004         13.7504
  20904742.9424    2156740.55248   1681148.81147                  20904749.6224
        29.5004         27.2504
  21204752.1064    2989882.16047   2317444.55446                  21204759.2124
        26.2504         25.2504
  20860954.6224    1674868.39347   1318265.86047                  20860959.7084
        23.7504         25.7504
  22344888.6224    -817845.99047   -581499.17546                  22344896.3254
        24.2504         23.2504
  23367608.5284   -1418342.55846  -1048480.57746                  23367617.0174
        16.0004         15.5004
  24082764.9114    6959436.33646   5344323.94446                  24082773.6224
        14.2504         14.0004
 02  7 11 17 15 30.0010000  0  9G26G29G 6G15G17G18G21G 3G23
  23401277.4504    5316803.67446   4090283.03246                  23401285.0014
        16.0004         14.5004
  24411049.3024    5754690.86845   4424537.33345                  24411057.9424
        11.2504         10.2504
  23488503.4274    7658745.09646   5874757.59546                  23488513.3924
        12.5004         12.7504
  20910862.1064    2188897.05848   1706205.81047                  20910868.9504
        28.5004         27.2504
  21212212.3884    3029085.67747   2347992.72446                  21212219.3884
        25.7504         25.5004
  20866666.4034    1704884.31647   1341654.87347                  20866671.5364
        24.0004         25.7504
  22345934.8494    -812347.21447   -577214.38946                  22345942.4584
        25.2504         23.2504
  23365716.9744   -1428284.83246  -1056227.77146                  23365725.5324
        16.0004         15.2504
  24096551.8024    7031886.41146   5400778.49546                  24096560.2784
        14.2504         13.7504
 02  7 11 17 15 45.0010000  0  9G26G29G 6G15G17G18G21G 3G23
  23413519.6224    5381135.29946   4140411.53846                  23413527.7714
        16.5004         14.7504
  24423645.3334    5820882.32145   4476115.03645                  24423653.1884
        10.7504         10.7504
  23503928.6464    7739802.75346   5937919.27346                  23503938.9744
        12.2504         12.2504
  20917006.5364    2221185.56948   1731365.67047                  20917013.3214
        28.7504         27.0004
  21219696.3104    3068413.96947   2378638.13846                  21219703.3104
        25.7504         25.5004
  20872409.3964    1735065.22947   1365172.45647                  20872414.4464
        23.5004         25.7504
  22347006.6064    -806715.10647   -572825.71946                  22347014.6854
        24.7504         24.0004
  23363852.3024   -1438083.77246  -1063863.29046                  23363860.2164
        16.2504         15.5004
  24110352.9664    7104409.82246   5457290.19746                  24110361.6774
        14.5004         13.5004
 02  7 11 17 16  0.0010000  0  9G26G29G 6G15G17G18G21G 3G23
  23425798.5054    5445661.06746   4190691.30346                  23425806.1144
        15.7504         15.0004
  24436272.1614    5887234.89145   4527818.31245                  24436280.8724
        11.0004         10.2504
  23519376.7784    7820983.42146   6001176.83646                  23519386.1814
        12.5004         12.5004
  20923176.8414    2253610.96847   1756632.18847                  20923183.7124
        27.2504         27.2504
  21227204.8884    3107871.70447   2409384.40547                  21227211.8994
        26.0004         25.7504
  20878185.1384    1765415.88047   1388822.28846                  20878190.2354
        23.5004         25.2504
  22348104.7004    -800945.19647   -568329.64946                  22348112.7554
        25.0004         23.7504
  23362016.0994   -1447734.28446  -1071383.15446                  23362023.9424
        17.5004         15.2504
  24124168.8414    7177011.16746   5513862.61546                  24124177.7284
        14.5004         13.5004
 02  7 11 17 16 15.0020000  0  9G26G29G 6G15G17G18G21G 3G23
  23438115.3774    5510385.66146   4241126.02546                  23438123.9364
        15.7504         14.2504
  24448929.9634    5953753.36545   4579650.82545                  24448937.2214
        11.5004         10.5004
  23534849.5574    7902292.76545   6064534.64846                  23534859.6864
        11.7504         13.0004
  20929373.8774    2286175.93248   1782007.46947                  20929380.8184
        29.5004         27.2504
  21234738.7134    3147462.12447   2440234.07846                  21234745.7014
        25.7504         25.5004
  20883993.2444    1795938.78547   1412606.36446                  20883998.4474
        23.0004         25.2504
  22349229.1974    -795036.29547   -563725.29246                  22349236.6894
        25.5004         23.5004
  23360207.4394   -1457236.08546  -1078787.12846                  23360214.9084
        17.0004         15.5004
  24138000.0494    7249695.67046   5570499.86046                  24138009.0534
        14.5004         13.0004
 02  7 11 17 16 30.0020000  0  9G26G29G 6G15G17G18G21G 3G23
  23450466.1824    5575292.95846   4291703.09646                  23450474.3304
        14.7504         14.5004
  24461616.3224    6020421.57145   4631600.05945                  24461624.4714
        10.7504         10.2504
  23550343.5334    7983712.61346   6127978.57246                  23550353.6504
        13.2504         13.2504
  20935595.1504    2318869.09348   1807482.64647                  20935602.0804
        29.2504         27.5004
  21242295.5104    3187173.01947   2471177.62846                  21242302.4984
        25.5004         25.5004
  20889832.4324    1826622.53047   1436515.75846                  20889837.3184
        24.2504         25.5004
  22350378.1824    -788996.39147   -559018.84946                  22350385.6744
        24.7504         23.5004
  23358426.6044   -1466594.78946  -1086079.58946                  23358434.0374
        17.2504         15.2504
  24151844.4324    7322446.33146   5627188.63646                  24151852.9554
        14.7504         13.5004
 02  7 11 17 16 45.0020000  0  9G26G29G 6G15G17G18G21G 3G23
  23462854.4944    5640393.25546   4342430.54846                  23462863.1354
        14.7504         14.2504
  24474333.8224    6087249.77045   4683673.93245                  24474340.6314
        11.0004         10.0004
  23565860.7134    8065254.35346   6191517.47746                  23565871.3224
        14.2504         14.2504
  20941842.5574    2351699.05348   1833064.41547                  20941849.4634
        29.5004         27.7504
  21249876.8074    3227013.28647   2502221.97846                  21249883.8184
        26.5004         25.5004
  20895703.6664    1857475.38947   1460556.91846                  20895708.7174
        23.7504         25.5004
  22351553.9714    -782818.86547   -554205.16646                  22351561.1704
        24.7504         23.2504
  23356674.1584   -1475804.41046  -1093255.90146                  23356681.5804
        16.7504         15.5004
  24165702.9004    7395274.12146   5683937.51646                  24165711.6464
        15.0004         13.5004
 02  7 11 17 17  0.0020000  0  9G26G29G 6G15G17G18G21G 3G23
  23475279.0884    5705684.98646   4393307.17646                  23475288.1394
        14.5004         14.2504
  24487080.9474    6154236.58745   4735871.39145                  24487087.8424
        11.0004          9.5004
  23581400.5644    8146916.39746   6255150.14446                  23581410.9984
        14.0004         14.2504
  20948115.7684    2384664.54148   1858751.78747                  20948122.4944
        29.7504         27.7504
  21257482.6744    3266981.68347   2533366.16146                  21257489.7444
        25.5004         25.2504
  20901606.5724    1888495.86547   1484728.70147                  20901611.4824
        24.2504         25.7504
  22352755.5184    -776504.95947   -549285.22146                  22352762.7644
        25.0004         23.5004
  23354949.9714   -1484866.02746  -1100316.87546                  23354957.5924
        16.5004         15.5004
  24179575.6434    7468177.52046   5740745.33446                  24179584.8344
        14.7504         13.2504
 02  7 11 17 17 15.0020000  0  9G26G29G 6G15G17G18G21G 3G23
  23487739.6044    5771162.69346   4444328.72746                  23487747.8694
        14.0004         14.0004
  24499857.0804    6221376.52945   4788188.19445                  24499863.4554
        11.0004         10.0004
  23596962.0884    8228693.49346   6318872.43946                  23596972.6974
        14.2504         14.2504
  20954413.6824    2417760.44848   1884540.79247                  20954420.5254
        29.5004         27.5004
  21265111.6194    3307073.13347   2564606.22246                  21265118.3344
        25.5004         25.0004
  20907540.3854    1919678.70747   1509026.99547                  20907545.3304
        24.0004         26.0004
  22353982.0574    -770059.79047   -544262.98346                  22353989.3144
        24.2504         23.0004
  23353252.3694   -1493784.28046  -1107266.15446                  23353260.1194
        16.0004         15.0004
  24193462.3464    7541151.25946   5797607.92946                  24193470.4004
        14.5004         13.2504
 02  7 11 17 17 30.0020000  0  9G26G29G 6G15G17G18G21G 3G23
  23500235.3224    5836828.49946   4495496.86646                  23500243.6704
        15.0004         14.2504
  24512662.5644    6288671.55945   4840625.83545                  24512669.8224
        11.7504          9.7504
  23612546.2754    8310587.63046   6382685.94546                  23612556.5804
        13.7504         14.2504
  20960736.7684    2450989.13648   1910433.26547                  20960743.6004
        29.5004         27.7504
  21272764.7604    3347290.08247   2595944.09246                  21272771.3114
        26.0004         24.7504
  20913505.6744    1951026.25247   1533453.63846                  20913510.9244
        23.7504         25.5004
  22355233.7604    -763480.91347   -539136.55246                  22355241.1114
        25.0004         23.2504
  23351583.2134   -1502556.56146  -1114101.66246                  23351591.3964
        16.0004         15.5004
  24207362.7754    7614197.40946   5854526.99246                  24207371.2174
        15.0004         12.7504
 02  7 11 17 17 45.0020000  0  9G26G29G 6G15G17G18G21G 3G23
  23512766.6194    5902681.64446   4546810.94646                  23512774.9324
        15.0004         14.0004
  24525498.6274    6356121.17746   4893183.92645                  24525506.1434
        12.0004         10.0004
  23628152.4164    8392598.21546   6446590.19746                  23628162.5804
        13.2504         13.5004
  20967085.2294    2484350.50248   1936429.12347                  20967092.0374
        29.5004         27.5004
  21280441.5574    3387632.33647   2627379.60546                  21280448.3774
        25.7504         25.0004
  20919502.1114    1982537.98547   1558008.22746                  20919507.1864
        23.5004         25.5004
  22356510.7834    -756768.87947   -533906.38046                  22356518.2054
        23.5004         23.2504
  23349941.6354   -1511182.86746  -1120823.45046                  23349949.5614
        16.0004         15.2504
  24221276.2054    7687315.54746   5911502.12446                  24221284.1784
        14.5004         13.5004
 02  7 11 17 18  0.0020000  0  9G26G29G 6G15G17G18G21G 3G23
  23525333.6664    5968720.79246   4598269.99146                  23525342.0844
        15.0004         14.0004
  24538363.1824    6423724.05746   4945861.45945                  24538370.4284
        12.2504         10.5004
  23643780.3544    8474723.86246   6510584.10946                  23643790.5884
        12.5004         13.2504
  20973458.8074    2517843.42748   1962527.49747                  20973465.6664
        28.7504         27.5004
  21288142.2364    3428098.76447   2658911.86946                  21288148.8574
        26.0004         25.2504
  20925529.7834    2014212.69047   1582689.81346                  20925534.8694
        23.7504         25.5004
  22357813.0804    -749924.76747   -528573.26646                  22357820.3964
        25.2504         23.0004
  23348327.7134   -1519663.99546  -1127432.09046                  23348335.8614
        16.5004         15.5004
  24235204.0024    7760504.38746   5968532.34246                  24235212.4554
        14.2504         13.0004
 02  7 11 17 18 15.0020000  0  9G26G29G 6G15G17G18G21G 3G23
  23537936.4474    6034949.28446   4649876.56246                  23537944.9824
        15.0004         14.2504
  24551257.2294    6491483.47145   4998660.92645                  24551263.9794
        11.2504         10.5004
  23659431.1434    8556967.89546   6574670.26446                  23659440.9084
        12.2504         13.2504
  20979857.8544    2551471.47948   1988731.17247                  20979864.9364
        28.5004         27.2504
  21295867.3074    3468693.20947   2690543.89846                  21295873.9394
        27.2504         25.2504
  20931588.6664    2046053.90147   1607501.13046                  20931593.8694
        23.5004         25.5004
  22359141.3774    -742944.81047   -523134.32446                  22359148.8934
        23.5004         23.0004
  23346742.1824   -1527996.01946  -1133924.56446                  23346749.8144
        16.0004         15.2504
  24249145.0574    7833767.36046   6025620.32246                  24249153.9434
        14.0004         13.0004
 02  7 11 17 18 30.0020000  0  9G26G29G 6G15G17G18G21G 3G23
  23550572.7994    6101353.69546   4701620.22146                  23550581.9904
        15.0004         14.2504
  24564178.2604    6559386.03045   5051572.00045                  24564186.9594
        11.0004         10.5004
  23675101.5414    8639316.89146   6638838.19846                  23675112.4204
        12.7504         14.0004
  20986280.4084    2585221.75148   2015030.06547                  20986287.3144
        28.5004         27.2504
  21303613.8544    3509402.50947   2722265.44446                  21303620.2994
        27.0004         25.5004
  20937677.1824    2078048.39847   1632431.89546                  20937682.2214
        23.5004         25.5004
  22360493.0964    -735842.09447   -517599.70846                  22360500.9754
        24.2504         23.2504
  23345182.6354   -1536191.73746  -1140310.80246                  23345189.8224
        16.7504         15.0004
  24263098.6044    7907091.13146   6082755.67846                  24263107.3384
        13.5004         13.0004
 02  7 11 17 18 45.0020000  0  9G26G29G 6G15G17G18G21G 3G23
  23563243.4554    6167939.13846   4753504.93846                  23563252.3544
        14.5004         14.2504
  24577128.3544    6627436.99645   5104598.65445                  24577136.2214
        11.0004         10.2504
  23690793.5104    8721776.08746   6703091.99346                  23690804.2134
        13.2504         14.0004
  20992726.9944    2619099.76848   2041428.51547                  20992733.6394
        28.7504         27.0004
  21311383.7834    3550232.17247   2754080.75346                  21311390.4754
        26.2504         25.5004
  20943795.7994    2110201.59047   1657486.31846                  20943800.8964
        23.7504         25.5004
  22361869.2604    -728611.19147   -511965.22246                  22361876.7994
        24.7504         23.5004
  23343650.0104   -1544245.47946  -1146586.42446                  23343657.6544
        16.5004         15.2504
  24277064.2054    7980481.08746   6139942.60446                  24277073.0574
        14.0004         13.0004
 02  7 11 17 19  0.0020000  0  9G26G29G 6G15G17G18G21G 3G23
  23575949.3074    6234706.44046   4805531.37646                  23575958.0414
        14.5004         14.0004
  24590106.3694    6695637.11445   5157741.58745                  24590113.4754
        10.5004         10.0004
  23706506.5024    8804346.27846   6767432.30346                  23706516.6664
        13.7504         14.2504
  20999198.4714    2653106.66748   2067927.39747                  20999204.8694
        29.0004         27.0004
  21319176.4164    3591183.42547   2785990.80946                  21319183.1074
        26.5004         25.5004
  20949944.6194    2142514.28647   1682665.04547                  20949949.5884
        24.0004         25.7504
  22363269.5334    -721251.29247   -506230.20746                  22363277.3304
        23.7504         23.7504
  23342144.6194   -1552155.77446  -1152750.25846                  23342152.3464
        16.2504         15.5004
  24291042.5024    8053938.02146   6197181.73146                  24291050.7324
        13.7504         12.7504
 02  7 11 17 19 15.0020000  0  9G26G29G 6G15G17G18G21G 3G23
  23588689.5884    6301657.07346   4857700.65546                  23588698.0534
        14.2504         14.0004
  24603113.4004    6763987.89445   5211001.87145                  24603120.7994
        11.5004         10.0004
  23722239.9394    8887028.99346   6831860.28446                  23722250.1394
        13.2504         13.7504
  21005694.5964    2687244.30548   2094528.15747                  21005700.9944
        28.7504         26.7504
  21326992.4474    3632258.01947   2817996.96946                  21326999.2794
        26.2504         25.0004
  20956124.3144    2174988.28647   1707969.45846                  20956129.4944
        23.2504         25.2504
  22364695.2054    -713760.37147   -500393.09246                  22364702.8964
        25.0004         23.5004
  23340667.1114   -1559920.60046  -1158800.74846                  23340675.7644
        16.0004         15.2504
  24305034.1274    8127463.59746   6254474.33746                  24305042.3224
        13.7504         13.0004
 02  7 11 17 19 30.0020000  0  9G26G29G 6G15G17G18G21G 3G23
  23601463.7604    6368786.42146   4910009.17846                  23601471.9554
        15.0004         13.7504
  24616147.7054    6832484.77845   5264376.02445                  24616156.4984
        11.0004         10.2504
  23737994.6504    8969819.68046   6896372.40046                  23738004.8264
        12.7504         13.2504
  21012215.1584    2721508.47748   2121227.51447                  21012221.4754
        29.0004         26.7504
  21334831.4394    3673451.85747   2850096.05546                  21334838.0024
        25.7504         25.2504
  20962333.6584    2207619.15147   1733396.10746                  20962338.7684
        23.5004         25.2504
  22366144.5644    -706142.81947   -494457.32746                  22366152.3504
        23.5004         23.5004
  23339216.2214   -1567543.94646  -1164741.00846                  23339224.7794
        16.2504         15.5004
  24319037.8384    8201053.37746   6311816.99346                  24319046.1864
        14.2504         13.0004
 02  7 11 17 19 45.0020000  0  9G26G29G 6G15G17G18G21G 3G23
  23614271.4474    6436091.65946   4962454.78946                  23614280.0414
        14.5004         13.7504
  24629209.0964    6901124.91245   5317861.77845                  24629215.6584
        10.5004         10.0004
  23753769.4474    9052715.54946   6960966.47946                  23753780.0334
        12.5004         13.5004
  21018758.8464    2755896.75548   2148023.57047                  21018765.3614
        28.5004         27.0004
  21342692.4864    3714762.51847   2882286.16246                  21342699.2014
        26.5004         25.0004
  20968572.4244    2240404.11647   1758942.84446                  20968577.7094
        23.5004         25.2504
  22367617.5494    -698401.12647   -488424.80646                  22367625.4754
        23.5004         23.2504
  23337792.1504   -1575027.99346  -1170572.70546                  23337800.2754
        16.0004         15.5004
  24333053.3304    8274704.62946   6369207.54846                  24333062.0294
        14.5004         13.0004
 02  7 11 17 20  0.0020000  0  9G26G29G 6G15G17G18G21G 3G23
  23627112.0104    6503568.72646   5015034.26746                  23627120.4864
        15.7504         14.0004
  24642297.9164    6969904.33145   5371456.10945                  24642306.5574
        10.7504         10.0004
  23769563.3854    9135712.52046   7025639.31846                  23769574.1704
        12.7504         13.2504
  21025325.6744    2790405.41548   2174913.42547                  21025332.2714
        29.7504         27.2504
  21350575.2684    3756186.18347   2914564.34246                  21350582.2444
        25.5004         25.0004
  20974839.7834    2273339.49647   1784606.76946                  20974844.9394
        23.0004         25.2504
  22369113.7524    -690539.05047   -482298.49046                  22369121.0454
        23.7504         23.0004
  23336393.8224   -1582376.18446  -1176298.54246                  23336402.2404
        16.0004         15.7504
  24347079.5724    8348413.44246   6426642.95246                  24347088.0844
        13.7504         12.7504
 02  7 11 17 20 15.0020000  0  9G26G29G 6G15G17G18G21G 3G23
  23639986.0104    6571221.77746   5067750.87646                  23639994.0884
        15.7504         13.7504
  24655413.5494    7038827.36045   5425162.30845                  24655421.8964
        11.2504         10.2504
  23785377.5184    9218814.90946   7090394.31046                  23785387.6824
        13.5004         14.0004
  21031916.1044    2825039.08748   2201900.71047                  21031922.7254
        28.7504         27.5004
  21358480.3694    3797727.63847   2946934.29546                  21358487.1074
        25.7504         25.0004
  20981136.3934    2306429.57447   1810391.24146                  20981141.3614
        23.2504         25.2504
  22370633.5884    -682551.97347   -476074.77746                  22370640.7644
        24.7504         23.2504
  23335022.3544   -1589583.62646  -1181914.72846                  23335030.4904
        16.7504         16.0004
  24361117.2134    8422184.20346   6484126.63146                  24361125.2914
        13.5004         12.7504
 02  7 11 17 20 30.0020000  0  9G26G29G 6G15G17G18G21G 3G23
  23652892.9944    6639046.46146   5120601.25246                  23652901.4474
        15.5004         13.7504
  24668555.3074    7107889.36045   5478976.79945                  24668563.0454
        10.7504         10.2504
  23801210.1894    9302018.26446   7155227.97546                  23801220.0724
        13.7504         14.0004
  21038529.7994    2859793.58048   2228982.13947                  21038536.5614
        29.5004         27.5004
  21366406.9164    3839382.60947   2979392.68946                  21366413.7874
        26.2504         25.2504
  20987462.1194    2339670.02447   1836292.88146                  20987467.1114
        23.2504         25.2504
  22372176.6974    -674444.08947   -469756.92546                  22372184.1434
        24.0004         23.5004
  23333676.6584   -1596654.19146  -1187424.23146                  23333684.3504
        16.7504         15.5004
  24375166.4714    8496012.54946   6541655.18446                  24375174.6664
        14.0004         12.5004
 02  7 11 17 20 45.0020000  0  9G26G29G 6G15G17G18G21G 3G23
  23665831.9474    6707044.72446   5173586.86046                  23665840.0254
        14.5004         13.5004
  24681724.3144    7177092.58745   5532901.33645                  24681733.4824
        10.2504         10.0004
  23817063.4084    9385324.64546   7220141.91546                  23817073.5374
        14.0004         13.7504
  21045166.7214    2894671.34348   2256159.62947                  21045173.6394
        30.0004         27.7504
  21374355.8304    3881153.59447   3011941.48646                  21374362.7134
        26.7504         25.0004
  20993816.7294    2373063.13347   1862313.48146                  20993821.5104
        24.0004         25.2504
  22373742.7604    -666213.03947   -463343.09246                  22373750.7214
        23.0004         23.0004
  23332357.7364   -1603585.32546  -1192825.08746                  23332364.9244
        16.2504         15.7504
  24389227.0414    8569900.62546   6599230.26746                  24389235.6824
        13.5004         13.2504
 02  7 11 17 21  0.0020000  0  9G26G29G 6G15G17G18G21G 3G23
  23678805.3464    6775217.67946   5226708.60646                  23678813.2954
        14.5004         13.2504
  24694920.4554    7246437.98045   5586936.65345                  24694929.5184
        10.7504         10.2504
  23832935.4554    9468735.20546   7285137.07046                  23832945.2094
        13.7504         13.5004
  21051827.4474    2929673.89848   2283434.35747                  21051834.1624
        30.0004         27.7504
  21382327.0334    3923041.99347   3044581.77946                  21382333.8544
        26.7504         25.0004
  21000200.6114    2406610.09047   1888453.96546                  21000205.6394
        23.2504         25.2504
  22375332.7294    -657857.56647   -456832.30546                  22375340.2794
        23.7504         23.2504
  23331065.5574   -1610375.18546  -1198115.86946                  23331072.6624
        16.2504         16.0004
  24403299.2604    8643849.62146   6656852.81446                  24403307.1864
        13.5004         12.7504
 02  7 11 17 21 15.0020000  0  9G26G29G 6G15G17G18G21G 3G23
  23691810.5184    6843561.87846   5279963.77946                  23691818.9714
        15.7504         13.7504
  24708142.9474    7315922.26345   5641080.20845                  24708151.4364
        11.0004          9.7504
  23848827.4474    9552246.48746   7350210.68546                  23848837.7294
        13.2504         13.5004
  21058511.5254    2964798.07148   2310803.83047                  21058518.4904
        29.5004         27.7504
  21390319.9004    3965044.66747   3077311.11546                  21390326.4864
        27.0004         25.2504
  21006612.6504    2440307.65647   1914711.81046                  21006617.7604
        23.0004         25.0004
  22376945.6194    -649380.76147   -450226.98246                  22376953.3574
        24.2504         23.7504
  23329799.9864   -1617026.66446  -1203298.81946                  23329807.5374
        17.0004         16.0004
  24417382.3384    8717856.24546   6714520.29746                  24417390.2404
        14.0004         12.7504
 02  7 11 17 21 30.0020000  0  9G26G29G 6G15G17G18G21G 3G23
  23704849.7834    6912080.43446   5333354.82146                  23704857.1464
        15.0004         13.2504
  24721393.0184    7385548.55045   5695334.38945                  24721401.4594
        11.5004         10.5004
  23864738.8384    9635861.73646   7415365.31946                  23864748.7914
        12.7504         13.2504
  21065219.2294    3000047.40648   2338270.82947                  21065226.3814
        29.5004         27.7504
  21398335.3304    4007165.28347   3110132.36646                  21398341.8814
        27.0004         25.5004
  21013054.6114    2474159.20947   1941089.65146                  21013059.9794
        23.0004         25.0004
  22378582.9164    -640779.19047   -443524.43446                  22378590.6894
        23.5004         23.7504
  23328561.0334   -1623535.93246  -1208370.96046                  23328568.8424
        15.7504         16.0004
  24431476.7214    8791923.81446   6772235.25546                  24431485.4674
        13.7504         12.7504
 02  7 11 17 21 45.0020000  0  9G26G29G 6G15G17G18G21G 3G23
  23717920.8384    6980768.57146   5386878.00346                  23717928.5644
        16.2504         13.7504
  24734668.4394    7455312.15145   5749695.61745                  24734677.3854
        11.0004         10.2504
  23880669.3934    9719576.12346   7480597.17646                  23880679.7214
        12.7504         13.2504
  21071949.8144    3035417.38148   2365831.84747                  21071956.9674
        29.2504         28.0004
  21406372.0964    4049399.39047   3143042.04846                  21406378.7174
        27.2504         25.2504
  21019524.6504    2508160.09147   1967583.84246                  21019529.8654
        23.2504         25.2504
  22380242.3694    -632057.24547   -436728.08946                  22380250.0964
        24.5004         24.0004
  23327349.1584   -1629907.31846  -1213335.64946                  23327357.1784
        16.7504         16.0004
  24445582.1584    8866047.62746   6829994.02446                  24445591.2914
        13.5004         12.7504
 02  7 11 17 22  0.0020000  0  9G26G29G 6G15G17G18G21G 3G23
  23731023.0574    7049622.85046   5440530.63846                  23731030.3504
        16.5004         13.7504
  24747969.5644    7525209.54645   5804161.04745                  24747978.5214
        11.2504         10.0004
  23896618.1744    9803386.25046   7545903.66246                  23896629.0294
        13.2504         13.2504
  21078703.1114    3070905.10548   2393484.61947                  21078710.1704
        29.5004         27.7504
  21414429.9794    4091743.96647   3176037.81246                  21414436.6704
        26.5004         25.5004
  21026022.9864    2542307.10347   1994191.89846                  21026028.0494
        23.2504         25.2504
  22381924.3544    -623218.15847   -429840.46946                  22381931.5184
        24.5004         23.7504
  23326162.3074   -1636143.46346  -1218194.95546                  23326170.4554
        16.5004         16.0004
  24459697.6664    8940224.45646   6887794.13046                  24459706.9044
        13.5004         12.2504
 02  7 11 17 22 15.0020000  0  9G26G29G 6G15G17G18G21G 3G23
  23744156.4394    7118638.06446   5494308.69846                  23744164.5294
        15.7504         13.5004
  24761294.2134    7595235.61345   5858726.76045                  24761303.4044
        10.5004          9.7504
  23912584.0644    9887287.02646   7611280.78846                  23912595.0964
        13.5004         13.0004
  21085477.6114    3106505.72648   2421225.36147                  21085484.4554
        29.2504         27.5004
  21422507.8464    4134194.10847   3209115.83546                  21422514.5374
        26.5004         25.2504
  21032547.4084    2576595.23147   2020909.91546                  21032552.4364
        23.5004         25.0004
  22383627.8224    -614266.83947   -422865.39746                  22383635.2214
        25.2504         24.0004
  23325000.6274   -1642249.10646  -1222952.57746                  23325008.4244
        17.2504         16.2504
  24473821.8694    9014449.22946   6945631.56146                  24473831.4364
        13.2504         13.0004
 02  7 11 17 22 30.0020000  0  9G26G29G 6G15G17G18G21G 3G23
  23757320.2214    7187815.78346   5548213.36846                  23757328.4634
        15.2504         13.2504
  24774645.0104    7665392.05445   5913394.08745                  24774654.1074
        10.7504         10.0004
  23928567.3464    9971280.01846   7676729.76346                  23928579.0454
        13.2504         12.7504
  21092274.0104    3142221.19748   2449055.58847                  21092280.7014
        30.0004         27.5004
  21430606.6434    4176751.95647   3242277.79546                  21430613.2294
        26.5004         25.2504
  21039099.6824    2611026.30947   2047739.32446                  21039104.5574
        23.5004         25.2504
  22385352.9554    -605201.22147   -415801.25746                  22385360.3544
        24.5004         24.2504
  23323863.5494   -1648221.93046  -1227606.70746                  23323871.3344
        16.5004         16.2504
  24487956.2684    9088723.62646   7003507.68446                  24487965.6114
        13.5004         12.5004
 02  7 11 17 22 45.0020000  0  9G26G29G 6G15G17G18G21G 3G23
  23770515.6434    7257157.82846   5602246.08846                  23770523.5104
        15.5004         14.0004
  24788020.7754    7735680.52345   5968164.27245                  24788029.7794
        10.0004          9.7504
  23944568.8144   10055367.03446   7742251.99546                  23944579.7294
        13.0004         12.5004
  21099092.6974    3178053.65748   2476976.97947                  21099099.4004
        29.2504         27.5004
  21438725.9634    4219419.52347   3275525.23546                  21438732.6314
        26.5004         25.0004
  21045679.1584    2645602.23347   2074681.60646                  21045684.2684
        23.2504         25.0004
  22387100.0724    -596019.60147   -408646.71946                  22387107.8114
        25.0004         24.0004
  23322752.9474   -1654059.54746  -1232155.47546                  23322760.2994
        17.7504         16.2504
  24502099.3774    9163049.61846   7061423.99546                  24502108.1704
        13.0004         12.2504
 02  7 11 17 23  0.0020000  0  9G26G29G 6G15G17G18G21G 3G23
  23783741.1824    7326658.03846   5656402.05846                  23783749.5294
        16.0004         13.7504
  24801419.6974    7806095.07845   6023032.73145                  24801428.1274
         9.5004          9.7504
  23960586.3544   10139542.01846   7807842.79346                  23960597.1044
        12.0004         12.5004
  21105932.5494    3213997.45748   2504985.13847                  21105939.1934
        29.7504         27.5004
  21446864.9244    4262191.10147   3308853.72046                  21446871.8424
        26.0004         25.2504
  21052285.2444    2680317.13047   2101732.18146                  21052290.4474
        23.0004         25.2504
  22388868.3074    -586727.71747   -401406.26646                  22388876.3854
        24.7504         23.7504
  23321666.9474   -1659767.48446  -1236603.19546                  23321674.2994
        18.0004         16.2504
  24516252.0574    9237421.25546   7119375.89546                  24516261.3894
        12.2504         12.2504
 02  7 11 17 23 15.0020000  0  9G26G29G 6G15G17G18G21G 3G23
  23796997.1744    7396315.69646   5710680.70446                  23797005.1704
        14.7504         13.7504
  24814843.0804    7876634.97645   6077998.79245                  24814853.8304
         9.2504          9.7504
  23976620.7364   10223804.36245   7873501.65346                  23976631.7324
        11.5004         12.0004
  21112793.7914    3250052.20048   2533079.75147                  21112800.4714
        30.2504         27.7504
  21455023.7834    4305066.31747   3342262.94046                  21455030.7954
        26.0004         25.2504
  21058917.4864    2715170.48247   2128890.64146                  21058922.6434
        23.0004         25.0004
  22390657.4394    -577325.69447   -394080.00246                  22390665.0964
        25.7504         24.2504
  23320605.2364   -1665345.86146  -1240949.97346                  23320612.8694
        17.7504         16.5004
  24530412.8464    9311837.95246   7177362.89146                  24530422.2134
        13.0004         12.2504
 02  7 11 17 23 30.0020000  0  9G26G29G 6G15G17G18G21G 3G23
  23810282.8544    7466133.07646   5765083.81946                  23810290.6044
        14.7504         13.2504
  24828290.5104    7947302.62845   6133064.46545                  24828300.0414
         9.2504          9.7504
  23992672.4714   10308156.34245   7939230.34245                  23992683.8544
        11.0004         11.5004
  21119676.1504    3286220.56048   2561262.89847                  21119682.6194
        30.2504         27.7504
  21463202.8854    4348048.02647   3375755.16646                  21463209.6464
        25.2504         25.2504
  21065576.7524    2750164.64547   2156158.82646                  21065581.5684
        23.5004         25.2504
  22392468.0804    -567810.96647   -386665.90746                  22392476.0184
        25.2504         24.7504
  23319568.8224   -1670791.73846  -1245193.48546                  23319576.7364
        17.7504         16.5004
  24544583.2294    9386302.12046   7235386.88246                  24544592.1624
        12.7504         12.2504
 02  7 11 17 23 45.0020000  0  9G26G29G 6G15G17G18G21G 3G23
  23823599.2684    7536111.72746   5819612.60646                  23823607.3694
        15.7504         13.5004
  24841763.4394    8018099.39445   6188230.69945                  24841772.2444
        10.0004         10.0004
  24008741.7914   10392599.53345   8005030.11845                  24008752.1664
        10.7504         11.0004
  21126580.8384    3322504.46348   2589536.06547                  21126587.3304
        30.0004         27.7504
  21471402.7444    4391137.99247   3409331.75846                  21471409.8264
        26.0004         25.2504
  21072263.0254    2785301.38547   2183538.10946                  21072267.8184
        23.7504         25.5004
  22394300.2294    -558181.74547   -379162.59046                  22394307.4984
        25.2504         24.2504
  23318557.5644   -1676102.92946  -1249332.04946                  23318565.9594
        16.7504         16.5004
  24558762.9864    9460815.47446   7293449.18146                  24558771.9794
        12.7504         12.0004
 02  7 11 17 24  0.0020000  0  9G26G29G 6G15G17G18G21G 3G23
  23836945.6974    7606247.84746   5874264.06646                  23836953.2484
        15.2504         13.5004
  24855259.4244    8089021.69445   6243494.80345                  24855268.0884
        10.5004         10.0004
  24024827.5414   10477130.20245   8070898.04345                  24024839.0294
        10.7504         11.2504
  21133506.7214    3358900.43248   2617896.55847                  21133513.2834
        29.5004         27.5004
  21479622.5414    4434332.85547   3442990.08846                  21479629.5884
        26.5004         25.2504
  21078975.7834    2820577.21047   2211025.77546                  21078980.4714
        23.5004         25.2504
  22396153.9794    -548441.61347   -371572.86246                  22396161.0024
        26.5004         24.5004
  23317572.3384   -1681282.57346  -1253368.12446                  23317580.4864
        18.0004         16.5004
  24572951.1504    9535374.29046   7351546.91546                  24572959.6624
        12.5004         12.0004
 02  7 11 17 24 15.0020000  0  9G26G29G 6G15G17G18G21G 3G23
  23850321.2054    7676536.20746   5929034.20046                  23850329.0844
        16.0004         13.2504
  24868778.0254    8160064.31645   6298852.63145                  24868786.2564
         9.7504         10.2504
  24040928.5414   10561743.21045   8136830.13045                  24040938.4244
        10.2504         11.0004
  21140453.0724    3395403.68148   2646340.65047                  21140459.8224
        30.0004         28.0004
  21487861.2214    4477627.79147   3476726.36946                  21487868.1744
        26.5004         25.2504
  21085713.9794    2855987.03647   2238617.85846                  21085718.8074
        23.5004         25.2504
  22398027.6824    -538595.36647   -363900.44746                  22398035.2444
        26.2504         24.7504
  23316610.7754   -1686335.29946  -1257305.28846                  23316619.0064
        17.5004         16.5004
  24587146.3854    9609973.61345   7409676.21745                  24587154.1934
        11.7504         11.7504
 02  7 11 17 24 30.0020000  0  9G26G29G 6G15G17G18G21G 3G23
  23863726.8384    7746982.71046   5983927.52546                  23863735.1864
        14.7504         13.7504
  24882320.9324    8231233.05345   6354308.74045                  24882331.0844
         9.5004          9.5004
  24057047.0024   10646444.34445   8202830.91145                  24057058.4324
        10.5004         11.2504
  21147421.2214    3432020.51348   2674873.24747                  21147428.2684
        30.0004         28.0004
  21496120.5024    4521028.98347   3510545.46546                  21496127.2524
        26.7504         25.5004
  21092478.8464    2891536.77447   2266318.96146                  21092483.8504
        23.0004         25.2504
  22399922.7444    -528637.08347   -356140.72046                  22399930.2134
        26.5004         24.5004
  23315674.6194   -1691254.66646  -1261138.54046                  23315682.5104
        17.2504         16.2504
  24601351.2134    9684619.41745   7467841.72645                  24601360.9324
        11.7504         11.7504
 02  7 11 17 24 45.0020000  0  9G26G29G 6G15G17G18G21G 3G23
  23877161.6434    7817585.25046   6038942.45146                  23877169.9674
        14.5004         13.5004
  24895887.6824    8302525.93745   6409861.59245                  24895896.8264
         9.7504          9.7504
  24073181.5414   10731231.63145   8268898.78946                  24073192.4084
        11.0004         12.0004
  21154410.3854    3468749.19848   2703493.00147                  21154417.1464
        30.0004         28.0004
  21504399.1894    4564534.91747   3544446.16646                  21504406.1074
        26.7504         25.2504
  21099269.9324    2927224.67747   2294127.73746                  21099274.8654
        23.0004         25.0004
  22401838.7834    -518568.28647   -348294.89546                  22401845.8654
        26.2504         24.7504
  23314763.5184   -1696042.20446  -1264869.07246                  23314771.3734
        16.7504         16.2504
  24615564.2364    9759309.81345   7526041.98445                  24615573.2174
        11.7504         11.5004
 02  7 11 17 25  0.0020000  0  9G26G29G 6G15G17G18G21G 3G23
  23890625.6044    7888335.95246   6094072.83846                  23890634.3384
        14.2504         13.2504
  24909476.2524    8373935.22145   6465505.12545                  24909483.6504
         9.2504          9.7504
  24089331.2684   10816097.31845   8335027.76446                  24089342.4164
        11.7504         12.2504
  21161419.4944    3505582.33348   2732194.13647                  21161426.2794
        29.7504         28.2504
  21512696.8304    4608137.97947   3578422.55446                  21512703.6504
        26.7504         25.5004
  21106086.1584    2963043.03847   2322038.16346                  21106091.2684
        23.0004         25.0004
  22403774.2754    -508396.61247   -340368.89646                  22403781.7444
        25.7504         24.5004
  23313876.4244   -1700704.93546  -1268502.34846                  23313884.2324
        17.5004         16.5004
  24629784.9474    9834037.15345   7584271.03345                  24629793.7994
        11.7504         11.7504
 02  7 11 17 25 15.0020000  0  9G26G29G 6G15G17G18G21G 3G23
  23904117.2914    7959236.46946   6149319.94846                  23904126.1314
        14.0004         13.5004
  24923087.9714    8445462.57345   6521240.67045                  24923097.1154
        10.2504         10.2504
  24105496.3144   10901043.02746   8401219.10646                  24105507.0184
        12.5004         12.7504
  21168448.8544    3542521.97648   2760978.26947                  21168455.6744
        30.5004         28.2504
  21521013.0184    4651840.39447   3612476.35846                  21521019.9364
        27.0004         25.5004
  21112927.1744    2998993.78147   2350051.74446                  21112932.3304
        23.2504         25.0004
  22405729.8614    -498120.03647   -332361.13746                  22405737.1894
        26.5004         25.0004
  23313012.7214   -1705240.59346  -1272036.60546                  23313020.6824
        17.2504         16.0004
  24644012.3544    9908803.23446   7642530.26845                  24644022.1074
        12.2504         11.7504
 02  7 11 17 25 30.0020000  0  9G26G29G 6G15G17G18G21G 3G23
  23917637.3074    8030283.87146   6204681.53646                  23917645.4324
        14.0004         13.2504
  24936720.8614    8517104.97745   6577065.89345                  24936729.8894
         9.7504         10.0004
  24121675.4324   10986065.86046   8467470.53546                  24121686.3814
        12.7504         13.0004
  21175497.9794    3579565.48948   2789843.33547                  21175504.7994
        30.5004         28.2504
  21529347.5644    4695639.35247   3646605.39646                  21529354.6584
        26.5004         25.5004
  21119793.0024    3035074.04047   2378166.23946                  21119798.2754
        23.0004         25.0004
  22407704.7294    -487741.20147   -324273.70146                  22407712.1744
        26.2504         24.5004
  23312173.7134   -1709651.55346  -1275473.70346                  23312181.3574
        16.7504         16.5004
  24658246.4554    9983605.19746   7700817.48845                  24658255.4124
        12.7504         11.2504
 02  7 11 17 25 45.0020000  0  9G26G29G 6G15G17G18G21G 3G23
  23931186.0574    8101483.78146   6260161.94046                  23931194.0764
        14.2504         13.2504
  24950377.5254    8588868.20245   6632985.20945                  24950386.7174
        10.5004         10.2504
  24137870.6894   11071171.46046   8533786.47046                  24137882.7404
        13.0004         13.2504
  21182567.9324    3616718.89348   2818794.01947                  21182574.6934
        30.5004         28.2504
  21537701.9554    4739541.05147   3680814.49946                  21537708.8144
        26.7504         25.2504
  21126684.4554    3071289.62447   2406386.18146                  21126689.7994
        23.0004         25.2504
  22409700.2994    -477254.28747   -316102.05246                  22409707.9904
        26.2504         24.7504
  23311359.2444   -1713931.62746  -1278808.80046                  23311366.7014
        17.0004         16.2504
  24672488.6824   10058448.85146   7759137.16245                  24672497.8854
        13.2504         11.7504
 02  7 11 17 26  0.0020000  0  9G26G29G 6G15G17G18G21G 3G23
  23944762.8694    8172829.67446   6315756.10046                  23944771.3344
        14.0004         13.2504
  24964055.0574    8660745.74745   6688993.63445                  24964064.1894
        10.5004         10.5004
  24154080.4394   11156353.47546   8600161.96546                  24154091.7874
        13.5004         12.5004
  21189657.8224    3653976.11148   2847825.60547                  21189664.4794
        30.7504         28.0004
  21546074.4634    4783539.36447   3715098.88546                  21546081.0144
        27.0004         25.2504
  21133600.6744    3107634.34547   2434706.75846                  21133606.2524
        23.0004         24.7504
  22411715.2364    -466665.24347   -307850.84146                  22411722.8694
        24.7504         24.5004
  23310568.4554   -1718086.72346  -1282046.51646                  23310575.9944
        17.0004         16.5004
  24686737.9164   10133327.92546   7817484.41645                  24686747.1434
        12.5004         11.7504
 02  7 11 17 26 15.0020000  0  9G26G29G 6G15G17G18G21G 3G23
  23958366.3224    8244318.42746   6371461.58946                  23958374.7874
        13.5004         13.5004
  24977754.2994    8732734.44245   6745088.67745                  24977762.8114
        10.7504         10.2504
  24170304.1434   11241608.68546   8666594.47546                  24170315.3144
        14.0004         13.5004
  21196766.8854    3691334.39448   2876935.95147                  21196773.5064
        30.7504         28.0004
  21554464.6974    4827631.39047   3749456.28546                  21554471.5924
        26.2504         25.0004
  21140540.8074    3144105.21047   2463125.62546                  21140546.1274
        23.2504         25.0004
  22413749.2054    -455977.04647   -299522.34046                  22413756.4514
        25.7504         24.7504
  23309801.0644   -1722119.24346  -1285188.72146                  23309808.0414
        18.0004         16.5004
  24700993.6664   10208239.39546   7875856.94046                  24701002.9394
        12.7504         12.0004
 02  7 11 17 26 30.0020000  0  9G26G29G 6G15G17G18G21G 3G23
  23971997.6274    8315950.10546   6427278.43346                  23972006.0214
        13.2504         12.7504
  24991474.3934    8804834.48045   6801270.49245                  24991483.8654
        10.0004         10.0004
  24186541.3544   11326937.26546   8733084.16646                  24186552.6894
        13.7504         13.2504
  21203895.4164    3728794.25748   2906125.45447                  21203902.0254
        30.5004         28.0004
  21562873.2054    4871817.85347   3783887.26146                  21562880.2754
        26.0004         25.0004
  21147505.2754    3180702.48447   2491642.99046                  21147510.6194
        23.0004         25.2504
  22415802.0104    -445189.49747   -291116.44346                  22415809.5024
        25.7504         24.7504
  23309057.1664   -1726028.47746  -1288234.84746                  23309064.6934
        18.5004         16.7504
  24715254.7524   10283183.50246   7934254.89545                  24715263.5334
        12.2504         11.5004
 02  7 11 17 26 45.0020000  0  9G26G29G 6G15G17G18G21G 3G23
  23985654.9324    8387721.90246   6483204.48346                  23985663.7604
        14.0004         12.7504
  25005215.3694    8877043.13845   6857536.94345                  25005224.6074
         9.7504          9.5004
  24202792.5254   11412336.49046   8799628.90546                  24202803.8264
        13.0004         13.5004
  21211042.5724    3766353.25548   2935392.20047                  21211049.2404
        31.2504         27.7504
  21571299.1664    4916096.28447   3818389.92446                  21571305.9044
        25.7504         25.0004
  21154492.7524    3217423.47847   2520256.76346                  21154497.9324
        23.2504         25.2504
  22417873.3774    -434304.76147   -282634.79646                  22417880.8464
        26.0004         24.5004
  23308336.1044   -1729816.65646  -1291186.64946                  23308343.5144
        17.0004         17.0004
  24729522.1044   10358157.64046   7992676.26446                  24729531.0964
        12.5004         12.0004
 02  7 11 17 27  0.0020000  0  9G26G29G 6G15G17G18G21G 3G23
  23999339.9084    8459635.65946   6539241.12946                  23999349.1234
        13.7504         13.0004
  25018977.2914    8949362.11145   6913889.33045                  25018987.4434
        10.0004          9.5004
  24219057.5104   11497808.18546   8866230.10546                  24219068.9864
        12.5004         13.0004
  21218208.9164    3804013.58648   2964737.89947                  21218215.4674
        29.7504         27.7504
  21579743.1274    4960468.76847   3852965.87246                  21579750.0924
        25.5004         25.0004
  21161504.5254    3254270.17247   2548968.47746                  21161509.4594
        23.7504         25.2504
  22419963.4554    -423320.80347   -274075.85546                  22419970.6434
        25.7504         24.5004
  23307639.1664   -1733481.39846  -1294042.28246                  23307646.9164
        17.5004         16.7504
  24743795.4474   10433163.78446   8051122.54945                  24743803.5024
        12.5004         11.5004
 02  7 11 17 27 15.0020000  0  9G26G29G 6G15G17G18G21G 3G23
  24013051.6354    8531690.29046   6595387.56046                  24013060.0064
        13.2504         12.7504
  25032760.4714    9021790.51345   6970327.00145                  25032768.7014
        10.5004          9.5004
  24235335.6584   11583351.33046   8932886.97846                  24235346.8304
        12.5004         13.2504
  21225394.6504    3841774.52348   2994162.00647                  21225401.4594
        30.5004         27.7504
  21588204.7294    5004934.76947   3887614.67946                  21588211.5724
        26.0004         25.2504
  21168540.1194    3291241.79047   2577777.53246                  21168545.1934
        23.2504         25.0004
  22422072.2754    -412238.54847   -265440.30646                  22422079.8034
        26.0004         24.7504
  23306965.5184   -1737023.01846  -1296801.96546                  23306973.4674
        18.0004         16.7504
  24758074.7994   10508201.01846   8109593.06845                  24758083.9794
        12.2504         11.7504
 02  7 11 17 27 30.0020000  0  9G26G29G 6G15G17G18G21G 3G23
  24026790.0104    8603886.62146   6651644.39846                  24026798.7324
        13.2504         12.7504
  25046563.6664    9094329.16145   7026850.59545                  25046572.6004
        11.0004         10.2504
  24251628.1274   11668966.83346   8999600.22546                  24251639.8734
        12.5004         13.2504
  21232599.5804    3879637.30348   3023665.46147                  21232606.1194
        29.7504         27.7504
  21596684.0184    5049495.34447   3922337.17546                  21596690.9474
        25.7504         25.5004
  21175599.5724    3328339.28247   2606684.66946                  21175604.5184
        23.2504         25.2504
  22424200.1504    -401056.69847   -256727.16346                  22424207.3034
        26.5004         24.5004
  23306314.5804   -1740440.20246  -1299464.68346                  23306322.3304
        17.5004         16.7504
  24772359.1584   10583270.24646   8168088.51545                  24772367.9984
        12.2504         11.7504
 02  7 11 17 27 45.0020000  0  9G26G29G 6G15G17G18G21G 3G23
  24040554.4394    8676217.34546   6708005.97146                  24040563.2324
        13.5004         12.7504
  25060386.8464    9166970.93345   7083454.51045                  25060395.6624
        11.2504         10.2504
  24267932.6194   11754647.55046   9066364.28646                  24267944.6584
        12.5004         13.7504
  21239823.0104    3917595.16448   3053242.99347                  21239829.6314
        30.2504         28.0004
  21605180.6114    5094143.86547   3957128.19946                  21605187.5884
        26.5004         25.5004
  21182681.7294    3365555.77047   2635684.53746                  21182686.7684
        23.2504         25.2504
  22426345.6504    -389782.14947   -247941.78546                  22426353.3544
        26.2504         24.5004
  23305687.0964   -1743739.43946  -1302035.49946                  23305694.7174
        18.2504         17.0004
  24786649.3304   10658364.57046   8226603.49845                  24786658.6744
        12.0004         11.5004
 02  7 11 17 28  0.0020000  0  9G26G29G 6G15G17G18G21G 3G23
  24054344.9324    8748687.82946   6764476.42746                  24054353.8074
        14.2504         12.7504
  25074230.5334    9239721.09345   7140142.88745                  25074238.8574
        10.7504          9.2504
  24284250.9554   11840398.72346   9133183.24246                  24284262.4084
        12.5004         13.0004
  21247065.3144    3955653.64448   3082898.94647                  21247072.1864
        30.7504         28.2504
  21613694.5574    5138885.81747   3991992.04746                  21613701.6274
        26.0004         25.2504
  21189787.1354    3402896.54947   2664781.25946                  21189792.2684
        23.0004         25.0004
  22428509.8384    -378409.47247   -239079.93346                  22428517.4364
        25.2504         24.2504
  23305082.7364   -1746914.94046  -1304509.89546                  23305090.1464
        19.0004         17.0004
  24800944.9864   10733489.31446   8285142.20345                  24800954.2254
        12.5004         11.7504
 02  7 11 17 28 15.0020000  0  9G26G29G 6G15G17G18G21G 3G23
  24068161.6434    8821294.90446   6821053.34946                  24068170.7174
        13.0004         13.5004
  25088094.6894    9312576.67845   7196913.44845                  25088102.4394
        10.5004         10.2504
  24300581.3304   11926217.40446   9200054.82046                  24300593.0064
        12.5004         13.0004
  21254326.2524    3993810.24548   3112631.35147                  21254333.0254
        30.7504         28.2504
  21622226.0884    5183718.81747   4026926.82646                  21622233.2054
        25.5004         25.0004
  21196916.1194    3440358.81347   2693972.65146                  21196921.0184
        23.5004         25.0004
  22430692.0414    -366941.27947   -230143.65046                  22430699.6044
        25.2504         24.0004
  23304501.3544   -1749969.00246  -1306889.64546                  23304508.9514
        18.0004         17.0004
  24815246.4944   10808641.70846   8343702.46145                  24815255.8734
        12.2504         11.7504
 02  7 11 17 28 30.0030000  0  9G26G29G 6G15G17G18G21G 3G23
  24082005.5074    8894042.87146   6877740.05746                  24082012.4724
        14.2504         12.7504
  25101979.6244    9385541.84745   7253769.37445                  25101988.2654
        10.0004         10.0004
  24316926.0694   12012108.70546   9266982.95446                  24316937.5114
        12.5004         12.7504
  21261606.3354    4032067.21148   3142441.96147                  21261613.0384
        31.5004         28.2504
  21630775.4214    5228645.39347   4061934.53946                  21630782.5504
        26.2504         25.2504
  21204068.4214    3477944.60847   2723260.29146                  21204073.4014
        23.7504         25.0004
  22432892.4054    -355377.26447   -221132.70146                  22432899.8864
        25.7504         24.0004
  23303943.2414   -1752901.81446  -1309174.94246                  23303950.8514
        18.0004         17.0004
  24829553.6084   10883826.22646   8402287.73745                  24829562.3084
        12.0004         11.2504
 02  7 11 17 28 45.0030000  0  9G26G29G 6G15G17G18G21G 3G23
  24095872.6324    8966916.71446   6934524.81946                  24095880.2764
        13.7504         13.2504
  25115882.6474    9458601.60945   7310699.00345                  25115890.3514
        10.7504          9.7504
  24333281.5854   12098055.86346   9333954.65646                  24333292.9444
        13.0004         12.5004
  21268903.6014    4070414.44448   3172322.92147                  21268910.3744
        30.5004         28.5004
  21639340.5224    5273654.63847   4097006.65946                  21639347.5224
        26.0004         25.0004
  21211242.1874    3515643.74847   2752636.25546                  21211246.9564
        23.7504         25.0004
  22435110.0074    -343724.02747   -212052.23746                  22435117.4174
        25.0004         24.2504
  23303407.5854   -1755717.84646  -1311369.23546                  23303415.3354
        18.7504         17.2504
  24843864.3194   10959027.71146   8460886.22645                  24843873.8154
        12.5004         11.2504
 02  7 11 17 29  0.0030000  0  9G26G29G 6G15G17G18G21G 3G23
  24109765.6944    9039923.90546   6991413.49146                  24109775.0034
        13.0004         13.0004
  25129804.6874    9531763.61745   7367708.31845                  25129813.3514
         9.7504          9.5004
  24349649.3744   12184067.46346   9400976.55146                  24349660.8744
        13.7504         12.7504
  21276218.9214    4108857.72248   3202278.71847                  21276225.7414
        30.7504         28.7504
  21647922.4054    5318752.78047   4132148.05846                  21647929.4764
        26.2504         25.0004
  21218439.1324    3553461.73847   2782104.81646                  21218443.9834
        23.0004         25.0004
  22437345.2654    -331977.57147   -202899.13946                  22437352.7694
        25.5004         24.0004
  23302894.8744   -1758413.82046  -1313469.97046                  23302902.7654
        18.0004         17.2504
  24858178.7414   11034254.13546   8519504.18245                  24858187.9914
        12.5004         11.5004
 02  7 11 17 29 15.0030000  0  9G26G29G 6G15G17G18G21G 3G23
  24123683.1714    9113061.54946   7048403.84546                  24123692.0114
        12.7504         12.5004
  25143746.3824    9605024.82145   7424794.94145                  25143754.6124
         9.7504          9.0004
  24366029.0464   12270140.47846   9468046.31046                  24366040.2414
        14.7504         12.7504
  21283552.3194    4147394.37848   3232307.27247                  21283559.2374
        31.2504         28.5004
  21656520.6084    5363937.07147   4167356.57946                  21656527.7614
        26.0004         25.0004
  21225657.2804    3591395.75947   2811663.79346                  21225662.3434
        22.2504         24.7504
  22439597.7724    -320140.51547   -193675.44946                  22439605.1124
        24.7504         24.2504
  23302403.7184   -1760992.08946  -1315479.00246                  23302411.0934
        18.5004         17.2504
  24872498.4214   11109502.61146   8578139.31545                  24872508.0344
        12.2504         11.2504
 02  7 11 17 29 30.0030000  0  9G26G29G 6G15G17G18G21G 3G23
  24137626.1714    9186328.77846   7105495.15846                  24137635.0694
        14.2504         13.0004
  25157705.8044    9678384.58445   7481958.34345                  25157714.3744
         9.5004          9.2504
  24382419.4604   12356274.15246   9535163.34246                  24382430.4794
        15.2504         12.7504
  21290903.2654    4186024.02848   3262408.29847                  21290910.1714
        30.5004         28.2504
  21665135.2414    5409207.29447   4202632.06946                  21665141.9214
        26.5004         25.0004
  21232897.8354    3629445.10347   2841312.63246                  21232902.9794
        22.0004         24.5004
  22441867.3664    -308213.61447   -184381.73646                  22441874.8584
        25.0004         24.5004
  23301935.4054   -1763452.96246  -1317396.54346                  23301942.8974
        18.5004         17.0004
  24886822.1794   11184772.56646   8636791.16745                  24886832.0734
        12.2504         11.5004
 02  7 11 17 29 45.0030000  0  9G26G29G 6G15G17G18G21G 3G23
  24151593.2964    9259729.02146   7162690.10246                  24151601.6904
        12.7504         12.5004
  25171684.6244    9751846.32045   7539201.18145                  25171694.4954
         8.7504          8.7504
  24398822.5464   12442472.01846   9602330.37446                  24398832.5584
        15.0004         12.5004
  21298272.5464    4224750.47748   3292584.74547                  21298279.2964
        30.0004         28.2504
  21673767.0304    5454567.15347   4237977.40746                  21673773.9014
        26.0004         25.2504
  21240160.9834    3667613.43647   2871054.18146                  21240166.1754
        22.7504         24.5004
  22444154.9444    -296192.85747   -175014.90446                  22444161.9914
        25.5004         23.7504
  23301490.4054   -1765792.18846  -1319219.30146                  23301497.5584
        18.0004         17.2504
  24901149.7884   11260067.55045   8695462.53945                  24901159.3314
        11.5004         10.7504
 02  7 11 17 30  0.0030000  0  9G26G29G 6G15G17G18G21G 3G23
  24165585.5074    9333257.09346   7219984.69546                  24165593.6674
        13.2504         12.5004
  25185682.0694    9825404.99345   7596519.64745                  25185693.9794
         7.7504          8.5004
  24415236.6944   12528728.94246   9669543.46446                  24415248.6514
        14.2504         12.2504
  21305659.2964    4263568.91248   3322832.87847                  21305666.2374
        29.7504         27.7504
  21682414.7334    5500011.94047   4273388.92546                  21682421.6754
        26.2504         25.2504
  21247446.0154    3705895.76947   2900884.55346                  21247450.9954
        23.0004         24.5004
  22446459.1474    -284083.20447   -165578.77846                  22446466.5114
        24.5004         24.0004
  23301067.3584   -1768014.41746  -1320950.88446                  23301074.3004
        19.2504         17.2504
  24915482.2964   11335382.64945   8754149.60945                  24915490.8544
        11.5004         10.7504
 02  7 11 17 30 15.0030000  0  9G26G29G 6G15G17G18G21G 3G23
  24179601.4294    9406913.51146   7277379.31146                  24179609.7884
        13.5004         12.2504
  25199699.5384    9899061.04545   7653913.82745                  25199711.8004
         9.0004          7.0004
  24431661.8124   12615045.47946   9736802.98145                  24431673.4174
        13.2504         11.5004
  21313064.0464    4302480.25648   3353153.40147                  21313070.8314
        29.5004         27.5004
  21691078.8044    5545542.51347   4308867.29146                  21691085.8624
        25.5004         25.2504
  21254752.8044    3744292.80147   2930804.30946                  21254757.7844
        22.7504         24.5004
  22448780.5154    -271884.14747   -156072.98746                  22448788.0074
        25.7504         24.2504
  23300666.9444   -1770118.57946  -1322590.46346                  23300674.1324
        19.2504         17.2504
  24929817.8904   11410718.42745   8812852.74645                  24929826.9644
        11.2504         10.7504
 02  7 11 17 30 30.0030000  0  9G26G29G 6G15G17G18G21G 3G23
  24193641.7964    9480694.10946   7334870.60546                  24193649.5694
        14.5004         12.5004
  25213732.8974    9972810.44545   7711380.98445                  25213745.2534
         8.2504          8.2504
  24448098.3904   12701417.56946   9804105.77845                  24448109.8904
        12.5004         11.7504
  21320485.6944    4341480.73848   3383543.38047                  21320492.3974
        29.0004         27.7504
  21699758.7414    5591155.18247   4344409.62346                  21699765.8704
        25.5004         24.7504
  21262080.6554    3782800.79847   2960810.52746                  21262085.5074
        23.0004         24.7504
  22451118.1944    -259599.12347   -146500.22246                  22451125.2414
        24.7504         23.7504
  23300288.3194   -1772107.99546  -1324140.64246                  23300295.1794
        19.0004         17.2504
  24944157.1714   11486070.99245   8871568.99745                  24944166.5264
        11.5004         11.0004
 02  7 11 17 30 45.0030000  0  9G26G29G 6G15G17G18G21G 3G23
  24207705.7264    9554601.16446   7392460.48746                  24207714.3314
        14.0004         12.2504
  25227784.6944   10046655.46045   7768922.43945                  25227794.6014
         8.2504          8.5004
  24464545.4764   12787847.53846   9871453.68345                  24464557.1164
        12.0004         10.7504
  21327924.6244    4380573.14348   3414004.97647                  21327931.2804
        30.2504         27.7504
  21708454.6084    5636852.69947   4380018.06746                  21708461.7144
        24.7504         25.0004
  21269429.9684    3821422.07247   2990905.02046                  21269434.8194
        23.0004         24.7504
  22453472.9374    -247225.58947   -136858.49746                  22453480.1244
        25.5004         24.0004
  23299932.1944   -1773979.75746  -1325599.14846                  23299939.2294
        18.5004         17.5004
  24958500.2024   11561442.85046   8930300.27545                  24958510.2264
        12.5004         11.2504
 02  7 11 17 31  0.0030000  0  9G26G29G 6G15G17G18G21G 3G23
  24221793.2104    9628631.14246   7450146.16646                  24221801.4764
        13.2504         12.7504
  25241855.1634   10120592.42845   7826535.65445                  25241864.8704
         8.0004          8.5004
  24481002.7334   12874331.76045   9938843.86645                  24481013.8584
        11.5004         10.7504
  21335380.5464    4419754.26648   3444535.71747                  21335387.2844
        29.7504         27.7504
  21717166.0934    5682631.67847   4415690.00446                  21717173.3974
        25.2504         24.7504
  21276800.4054    3860153.10247   3021085.04346                  21276805.4334
        23.5004         24.7504
  22455843.6634    -234766.96347   -127150.45246                  22455851.2844
        25.7504         24.2504
  23299597.6634   -1775736.96446  -1326968.37546                  23299604.5224
        18.7504         17.5004
  24972845.7264   11636830.57045   8989043.91745                  24972854.7184
        11.7504         10.7504
 02  7 11 17 31 15.0030000  0  9G26G29G 6G15G17G18G21G 3G23
  24235903.9054    9702784.33646   7507927.85446                  24235913.0264
        13.5004         12.5004
  25255941.7334   10194621.98045   7884220.96245                  25255951.1244
         8.0004          9.0004
  24497470.2724   12960870.76345  10006276.73845                  24497480.8824
        10.5004         10.2504
  21342853.5774    4459024.86048   3475136.18647                  21342860.2454
        30.5004         28.0004
  21725893.3664    5728493.00747   4451426.09446                  21725900.3784
        25.5004         25.0004
  21284191.7654    3898994.55547   3051351.10046                  21284196.9444
        23.2504         24.7504
  22458230.9604    -222222.60947   -117375.60546                  22458238.3354
        25.5004         24.0004
  23299285.4914   -1777378.63146  -1328247.57046                  23299292.8904
        19.2504         17.5004
  24987194.8824   11712234.69745   9047800.33545                  24987204.2964
        11.7504         10.2504
 02  7 11 17 31 30.0030000  0  9G26G29G 6G15G17G18G21G 3G23
  24250039.3124    9777067.22846   7565810.59245                  24250048.5384
        13.0004         11.7504
  25270048.3194   10268750.56645   7941983.48145                  25270058.0384
         8.2504          8.5004
  24513949.8194   13047471.05845  10073757.35945                  24513960.3474
        10.0004         10.2504
  21350344.9914    4498391.85048   3505811.77347                  21350351.6244
        30.2504         28.0004
  21734637.5694    5774443.61347   4487231.75646                  21734644.8394
        26.5004         25.2504
  21291605.1404    3937953.11947   3081708.42146                  21291610.2844
        23.0004         24.5004
  22460635.6084    -209585.61047   -107528.57646                  22460643.0194
        24.7504         24.2504
  23298996.1944   -1778897.65846  -1329431.21146                  23299003.9794
        19.7504         18.0004
  25001548.8194   11787661.90145   9106574.73545                  25001557.6714
        11.7504         10.5004
 02  7 11 17 31 45.0030000  0  9G26G29G 6G15G17G18G21G 3G23
  24264197.0544    9851465.58246   7623783.31846                  24264205.7294
        12.7504         12.2504
  25284170.8904   10342964.01145   7999812.07545                  25284179.8124
         8.2504          8.5004
  24530438.8194   13134118.50045  10141274.70845                  24530450.7184
         9.7504          9.7504
  21357851.9374    4537841.38448   3536551.67647                  21357858.8664
        30.7504         28.5004
  21743396.0074    5820469.72047   4523096.25946                  21743403.0894
        25.5004         25.0004
  21299038.3274    3977014.77447   3112146.07646                  21299043.4834
        23.2504         24.7504
  22463055.3434    -196869.80747    -97620.12546                  22463062.8584
        25.0004         24.2504
  23298728.0854   -1780307.60146  -1330529.84946                  23298735.6014
        18.7504         17.5004
  25015903.7494   11863098.21945   9165356.22745                  25015914.1244
        11.7504         11.5004
 02  7 11 17 32  0.0030000  0  9G26G29G 6G15G17G18G21G 3G23
  24278376.8664    9925981.45846   7681847.59346                  24278385.9524
        12.0004         12.2504
  25298310.7574   10417264.30445   8057708.38445                  25298319.4094
         8.0004          8.0004
  24546936.7724   13220815.16145  10208830.38345                  24546948.3194
        10.0004          9.2504
  21365375.0464    4577375.86148   3567357.75847                  21365381.9404
        31.0004         28.5004
  21752169.2654    5866573.59347   4559021.35046                  21752176.2294
        26.0004         25.2504
  21306491.6554    4016181.78247   3142665.82346                  21306496.7884
        23.2504         24.7504
  22465490.5774    -184072.85947    -87648.45246                  22465498.0934
        25.5004         24.5004
  23298480.8974   -1781605.84146  -1331541.46046                  23298488.5074
        18.7504         17.7504
  25030260.5694   11938545.74646   9224146.46845                  25030270.8624
        12.7504         10.7504
 02  7 11 17 32 15.0030000  0  9G26G29G 6G15G17G18G21G 3G23
  24292578.8824   10000614.14146   7740002.90545                  24292588.0264
        12.7504         11.7504
  25312465.3124   10491650.88345   8115671.87045                  25312474.7374
         8.2504          8.2504
  24563444.2654   13307560.34445  10276423.92145                  24563455.4834
         9.7504         10.0004
  21372914.1944    4616995.03848   3598229.85047                  21372921.2764
        29.7504         28.5004
  21760957.3434    5912755.03347   4595006.88746                  21760964.2724
        25.7504         25.2504
  21313964.3974    4055453.62647   3173267.26746                  21313969.5774
        23.0004         25.0004
  22467940.8584    -171195.33247    -77613.99146                  22467947.8704
        25.0004         24.0004
  23298254.9994   -1782792.46246  -1332466.06746                  23298263.0194
        18.2504         18.2504
  25044620.4374   12014003.97246   9282945.02945                  25044630.4014
        12.2504         10.7504
